Wetterdaten: Freitag, 02.09.2016
Datum Zeit Temp. A. Feuchte A. Luftdruck Regen Wind Richtung Richtung Sonnenschein ET UV Solar Taupunkt Windchill Windben Empfang
02.09.2016 00:00 16,7 C 93 % 1020,0 hPa 0,0 l/m 1,8 km/h (1 Bft) S 184 0 min 0,000 mm 0,0 UV-I 0 W/m 15,6 C 16,7 C 3,2 km/h (1 Bft) 100,00 %
02.09.2016 00:02 16,8 C 93 % 1020,0 hPa 0,0 l/m 0,8 km/h (0 Bft) S 184 0 min 0,000 mm 0,0 UV-I 0 W/m 15,7 C 16,8 C 1,6 km/h (1 Bft) 100,00 %
02.09.2016 00:04 16,8 C 93 % 1020,0 hPa 0,0 l/m 0,7 km/h (0 Bft) S 184 0 min 0,000 mm 0,0 UV-I 0 W/m 15,7 C 16,8 C 1,6 km/h (1 Bft) 100,00 %
02.09.2016 00:06 16,8 C 93 % 1020,0 hPa 0,0 l/m 1,3 km/h (1 Bft) S 184 0 min 0,000 mm 0,0 UV-I 0 W/m 15,7 C 16,8 C 3,2 km/h (1 Bft) 98,00 %
02.09.2016 00:08 16,7 C 93 % 1020,0 hPa 0,0 l/m 1,2 km/h (1 Bft) S 184 0 min 0,000 mm 0,0 UV-I 0 W/m 15,6 C 16,7 C 1,6 km/h (1 Bft) 100,00 %
02.09.2016 00:10 16,7 C 93 % 1020,1 hPa 0,0 l/m 1,5 km/h (1 Bft) S 184 0 min 0,000 mm 0,0 UV-I 0 W/m 15,6 C 16,7 C 3,2 km/h (1 Bft) 100,00 %
02.09.2016 00:12 16,6 C 93 % 1020,1 hPa 0,0 l/m 0,9 km/h (0 Bft) S 184 0 min 0,000 mm 0,0 UV-I 0 W/m 15,5 C 16,6 C 3,2 km/h (1 Bft) 97,87 %
02.09.2016 00:14 16,4 C 93 % 1020,0 hPa 0,0 l/m 0,1 km/h (0 Bft) S 184 0 min 0,000 mm 0,0 UV-I 0 W/m 15,3 C 16,4 C 1,6 km/h (1 Bft) 100,00 %
02.09.2016 00:16 16,3 C 93 % 1020,1 hPa 0,0 l/m 0,0 km/h (0 Bft) S 184 0 min 0,000 mm 0,0 UV-I 0 W/m 15,2 C 16,3 C 0,0 km/h (0 Bft) 100,00 %
02.09.2016 00:18 16,3 C 93 % 1020,0 hPa 0,0 l/m 0,0 km/h (0 Bft) S 184 0 min 0,000 mm 0,0 UV-I 0 W/m 15,2 C 16,3 C 0,0 km/h (0 Bft) 94,00 %
02.09.2016 00:20 16,2 C 93 % 1020,0 hPa 0,0 l/m 0,7 km/h (0 Bft) S 184 0 min 0,000 mm 0,0 UV-I 0 W/m 15,1 C 16,2 C 1,6 km/h (1 Bft) 100,00 %
02.09.2016 00:22 16,2 C 94 % 1020,0 hPa 0,0 l/m 1,7 km/h (1 Bft) S 184 0 min 0,000 mm 0,0 UV-I 0 W/m 15,2 C 16,2 C 3,2 km/h (1 Bft) 100,00 %
02.09.2016 00:24 16,2 C 94 % 1020,0 hPa 0,0 l/m 3,0 km/h (1 Bft) S 184 0 min 0,000 mm 0,0 UV-I 0 W/m 15,2 C 16,2 C 4,8 km/h (1 Bft) 100,00 %
02.09.2016 00:26 16,3 C 95 % 1020,0 hPa 0,0 l/m 3,5 km/h (1 Bft) S 184 0 min 0,000 mm 0,0 UV-I 0 W/m 15,5 C 16,3 C 4,8 km/h (1 Bft) 100,00 %
02.09.2016 00:28 16,3 C 95 % 1020,1 hPa 0,0 l/m 3,5 km/h (1 Bft) S 184 0 min 0,000 mm 0,0 UV-I 0 W/m 15,5 C 16,3 C 4,8 km/h (1 Bft) 100,00 %
02.09.2016 00:30 16,3 C 94 % 1020,1 hPa 0,0 l/m 3,7 km/h (1 Bft) S 184 0 min 0,000 mm 0,0 UV-I 0 W/m 15,3 C 16,3 C 4,8 km/h (1 Bft) 100,00 %
02.09.2016 00:32 16,3 C 94 % 1020,1 hPa 0,0 l/m 3,5 km/h (1 Bft) S 184 0 min 0,000 mm 0,0 UV-I 0 W/m 15,3 C 16,3 C 4,8 km/h (1 Bft) 100,00 %
02.09.2016 00:34 16,3 C 94 % 1020,0 hPa 0,0 l/m 3,4 km/h (1 Bft) S 184 0 min 0,000 mm 0,0 UV-I 0 W/m 15,3 C 16,3 C 4,8 km/h (1 Bft) 100,00 %
02.09.2016 00:36 16,3 C 94 % 1020,0 hPa 0,0 l/m 3,7 km/h (1 Bft) S 184 0 min 0,000 mm 0,0 UV-I 0 W/m 15,3 C 16,3 C 6,4 km/h (2 Bft) 100,00 %
02.09.2016 00:38 16,4 C 95 % 1020,0 hPa 0,0 l/m 4,4 km/h (1 Bft) S 185 0 min 0,000 mm 0,0 UV-I 0 W/m 15,6 C 16,4 C 6,4 km/h (2 Bft) 100,00 %
02.09.2016 00:40 16,4 C 95 % 1019,9 hPa 0,0 l/m 3,9 km/h (1 Bft) S 180 0 min 0,000 mm 0,0 UV-I 0 W/m 15,6 C 16,4 C 4,8 km/h (1 Bft) 97,87 %
02.09.2016 00:42 16,5 C 94 % 1019,9 hPa 0,0 l/m 4,2 km/h (1 Bft) S 184 0 min 0,000 mm 0,0 UV-I 0 W/m 15,5 C 16,5 C 6,4 km/h (2 Bft) 97,56 %
02.09.2016 00:44 16,6 C 94 % 1019,9 hPa 0,0 l/m 4,4 km/h (1 Bft) S 191 0 min 0,000 mm 0,0 UV-I 0 W/m 15,6 C 16,6 C 6,4 km/h (2 Bft) 97,37 %
02.09.2016 00:46 16,6 C 94 % 1019,9 hPa 0,0 l/m 4,5 km/h (1 Bft) S-SW 198 0 min 0,000 mm 0,0 UV-I 0 W/m 15,6 C 16,6 C 6,4 km/h (2 Bft) 98,11 %
02.09.2016 00:48 16,6 C 94 % 1019,9 hPa 0,0 l/m 4,2 km/h (1 Bft) S-SW 197 0 min 0,000 mm 0,0 UV-I 0 W/m 15,6 C 16,6 C 4,8 km/h (1 Bft) 96,23 %
02.09.2016 00:50 16,6 C 94 % 1019,9 hPa 0,0 l/m 3,5 km/h (1 Bft) S-SW 197 0 min 0,000 mm 0,0 UV-I 0 W/m 15,6 C 16,6 C 6,4 km/h (2 Bft) 97,37 %
02.09.2016 00:52 16,6 C 94 % 1019,9 hPa 0,0 l/m 2,3 km/h (1 Bft) S-SW 198 0 min 0,000 mm 0,0 UV-I 0 W/m 15,6 C 16,6 C 4,8 km/h (1 Bft) 98,11 %
02.09.2016 00:54 16,6 C 94 % 1019,9 hPa 0,0 l/m 4,0 km/h (1 Bft) SW 232 0 min 0,000 mm 0,0 UV-I 0 W/m 15,6 C 16,6 C 6,4 km/h (2 Bft) 97,73 %
02.09.2016 00:56 16,6 C 94 % 1019,9 hPa 0,0 l/m 2,8 km/h (1 Bft) SW 232 0 min 0,000 mm 0,0 UV-I 0 W/m 15,6 C 16,6 C 4,8 km/h (1 Bft) 93,62 %
02.09.2016 00:58 16,6 C 94 % 1019,9 hPa 0,0 l/m 2,3 km/h (1 Bft) SW 232 0 min 0,000 mm 0,0 UV-I 0 W/m 15,6 C 16,6 C 4,8 km/h (1 Bft) 98,11 %
02.09.2016 01:00 16,6 C 93 % 1019,9 hPa 0,0 l/m 2,1 km/h (1 Bft) SW 232 0 min 0,000 mm 0,0 UV-I 0 W/m 15,5 C 16,6 C 3,2 km/h (1 Bft) 97,44 %
02.09.2016 01:02 16,6 C 94 % 1019,9 hPa 0,0 l/m 1,5 km/h (1 Bft) SW 232 0 min 0,000 mm 0,0 UV-I 0 W/m 15,6 C 16,6 C 3,2 km/h (1 Bft) 98,00 %
02.09.2016 01:04 16,6 C 94 % 1019,9 hPa 0,0 l/m 2,0 km/h (1 Bft) SW 232 0 min 0,000 mm 0,0 UV-I 0 W/m 15,6 C 16,6 C 3,2 km/h (1 Bft) 98,00 %
02.09.2016 01:06 16,6 C 94 % 1019,9 hPa 0,0 l/m 1,8 km/h (1 Bft) SW 232 0 min 0,000 mm 0,0 UV-I 0 W/m 15,6 C 16,6 C 3,2 km/h (1 Bft) 100,00 %
02.09.2016 01:08 16,7 C 94 % 1019,9 hPa 0,0 l/m 1,0 km/h (0 Bft) SW 232 0 min 0,000 mm 0,0 UV-I 0 W/m 15,7 C 16,7 C 1,6 km/h (1 Bft) 98,11 %
02.09.2016 01:10 16,7 C 94 % 1020,0 hPa 0,0 l/m 0,0 km/h (0 Bft) SW 232 0 min 0,000 mm 0,0 UV-I 0 W/m 15,7 C 16,7 C 0,0 km/h (0 Bft) 96,00 %
02.09.2016 01:12 16,7 C 94 % 1019,9 hPa 0,0 l/m 0,0 km/h (0 Bft) SW 232 0 min 0,000 mm 0,0 UV-I 0 W/m 15,7 C 16,7 C 0,0 km/h (0 Bft) 97,87 %
02.09.2016 01:14 16,7 C 93 % 1020,0 hPa 0,0 l/m 0,0 km/h (0 Bft) SW 232 0 min 0,000 mm 0,0 UV-I 0 W/m 15,6 C 16,7 C 0,0 km/h (0 Bft) 100,00 %
02.09.2016 01:16 16,7 C 93 % 1019,9 hPa 0,0 l/m 0,6 km/h (0 Bft) SW 232 0 min 0,000 mm 0,0 UV-I 0 W/m 15,6 C 16,7 C 1,6 km/h (1 Bft) 97,56 %
02.09.2016 01:18 16,7 C 93 % 1020,0 hPa 0,0 l/m 1,4 km/h (1 Bft) SW 232 0 min 0,000 mm 0,0 UV-I 0 W/m 15,6 C 16,7 C 3,2 km/h (1 Bft) 100,00 %
02.09.2016 01:20 16,7 C 93 % 1019,9 hPa 0,0 l/m 1,3 km/h (1 Bft) SW 232 0 min 0,000 mm 0,0 UV-I 0 W/m 15,6 C 16,7 C 1,6 km/h (1 Bft) 100,00 %
02.09.2016 01:22 16,7 C 94 % 1019,9 hPa 0,0 l/m 1,3 km/h (1 Bft) SW 232 0 min 0,000 mm 0,0 UV-I 0 W/m 15,7 C 16,7 C 1,6 km/h (1 Bft) 100,00 %
02.09.2016 01:24 16,6 C 93 % 1020,0 hPa 0,0 l/m 0,7 km/h (0 Bft) SW 232 0 min 0,000 mm 0,0 UV-I 0 W/m 15,5 C 16,6 C 1,6 km/h (1 Bft) 100,00 %
02.09.2016 01:26 16,6 C 94 % 1020,0 hPa 0,0 l/m 0,4 km/h (0 Bft) SW 232 0 min 0,000 mm 0,0 UV-I 0 W/m 15,6 C 16,6 C 1,6 km/h (1 Bft) 100,00 %
02.09.2016 01:28 16,6 C 94 % 1020,0 hPa 0,0 l/m 0,2 km/h (0 Bft) SW 232 0 min 0,000 mm 0,0 UV-I 0 W/m 15,6 C 16,6 C 1,6 km/h (1 Bft) 100,00 %
02.09.2016 01:30 16,6 C 94 % 1020,0 hPa 0,0 l/m 0,5 km/h (0 Bft) SW 232 0 min 0,000 mm 0,0 UV-I 0 W/m 15,6 C 16,6 C 1,6 km/h (1 Bft) 98,11 %
02.09.2016 01:32 16,5 C 94 % 1019,9 hPa 0,0 l/m 1,0 km/h (0 Bft) SW 232 0 min 0,000 mm 0,0 UV-I 0 W/m 15,5 C 16,5 C 1,6 km/h (1 Bft) 100,00 %
02.09.2016 01:34 16,5 C 94 % 1019,9 hPa 0,0 l/m 1,3 km/h (1 Bft) SW 232 0 min 0,000 mm 0,0 UV-I 0 W/m 15,5 C 16,5 C 1,6 km/h (1 Bft) 100,00 %
02.09.2016 01:36 16,5 C 94 % 1019,9 hPa 0,0 l/m 0,6 km/h (0 Bft) SW 232 0 min 0,000 mm 0,0 UV-I 0 W/m 15,5 C 16,5 C 1,6 km/h (1 Bft) 100,00 %
02.09.2016 01:38 16,4 C 94 % 1019,9 hPa 0,0 l/m 0,0 km/h (0 Bft) SW 232 0 min 0,000 mm 0,0 UV-I 0 W/m 15,4 C 16,4 C 0,0 km/h (0 Bft) 100,00 %
02.09.2016 01:40 16,3 C 94 % 1019,9 hPa 0,0 l/m 0,0 km/h (0 Bft) SW 232 0 min 0,000 mm 0,0 UV-I 0 W/m 15,3 C 16,3 C 0,0 km/h (0 Bft) 97,87 %
02.09.2016 01:42 16,3 C 94 % 1019,9 hPa 0,0 l/m 0,0 km/h (0 Bft) SW 232 0 min 0,000 mm 0,0 UV-I 0 W/m 15,3 C 16,3 C 0,0 km/h (0 Bft) 100,00 %
02.09.2016 01:44 16,3 C 94 % 1019,9 hPa 0,0 l/m 0,2 km/h (0 Bft) SW 232 0 min 0,000 mm 0,0 UV-I 0 W/m 15,3 C 16,3 C 1,6 km/h (1 Bft) 98,00 %
02.09.2016 01:46 16,3 C 94 % 1019,9 hPa 0,0 l/m 0,1 km/h (0 Bft) SW 232 0 min 0,000 mm 0,0 UV-I 0 W/m 15,3 C 16,3 C 1,6 km/h (1 Bft) 100,00 %
02.09.2016 01:48 16,3 C 94 % 1019,9 hPa 0,0 l/m 0,2 km/h (0 Bft) SW 232 0 min 0,000 mm 0,0 UV-I 0 W/m 15,3 C 16,3 C 1,6 km/h (1 Bft) 97,87 %
02.09.2016 01:50 16,3 C 94 % 1019,9 hPa 0,0 l/m 0,2 km/h (0 Bft) SW 232 0 min 0,000 mm 0,0 UV-I 0 W/m 15,3 C 16,3 C 1,6 km/h (1 Bft) 100,00 %
02.09.2016 01:52 16,2 C 94 % 1019,9 hPa 0,0 l/m 0,0 km/h (0 Bft) SW 232 0 min 0,000 mm 0,0 UV-I 0 W/m 15,2 C 16,2 C 1,6 km/h (1 Bft) 100,00 %
02.09.2016 01:54 16,3 C 95 % 1019,9 hPa 0,0 l/m 0,0 km/h (0 Bft) SW 232 0 min 0,000 mm 0,0 UV-I 0 W/m 15,5 C 16,3 C 0,0 km/h (0 Bft) 100,00 %
02.09.2016 01:56 16,3 C 95 % 1019,9 hPa 0,0 l/m 0,0 km/h (0 Bft) SW 232 0 min 0,000 mm 0,0 UV-I 0 W/m 15,5 C 16,3 C 1,6 km/h (1 Bft) 100,00 %
02.09.2016 01:58 16,4 C 95 % 1019,9 hPa 0,0 l/m 0,6 km/h (0 Bft) SW 232 0 min 0,000 mm 0,0 UV-I 0 W/m 15,6 C 16,4 C 3,2 km/h (1 Bft) 97,87 %
02.09.2016 02:00 16,5 C 95 % 1019,9 hPa 0,0 l/m 1,8 km/h (1 Bft) SW 232 0 min 0,000 mm 0,0 UV-I 0 W/m 15,7 C 16,5 C 3,2 km/h (1 Bft) 97,56 %
02.09.2016 02:02 16,4 C 94 % 1019,9 hPa 0,0 l/m 1,5 km/h (1 Bft) SW 232 0 min 0,000 mm 0,0 UV-I 0 W/m 15,4 C 16,4 C 3,2 km/h (1 Bft) 100,00 %
02.09.2016 02:04 16,4 C 94 % 1019,8 hPa 0,0 l/m 0,9 km/h (0 Bft) SW 232 0 min 0,000 mm 0,0 UV-I 0 W/m 15,4 C 16,4 C 1,6 km/h (1 Bft) 100,00 %
02.09.2016 02:06 16,4 C 94 % 1019,8 hPa 0,0 l/m 0,5 km/h (0 Bft) SW 232 0 min 0,000 mm 0,0 UV-I 0 W/m 15,4 C 16,4 C 1,6 km/h (1 Bft) 100,00 %
02.09.2016 02:08 16,3 C 94 % 1019,8 hPa 0,0 l/m 0,0 km/h (0 Bft) SW 232 0 min 0,000 mm 0,0 UV-I 0 W/m 15,3 C 16,3 C 1,6 km/h (1 Bft) 100,00 %
02.09.2016 02:10 16,3 C 94 % 1019,8 hPa 0,0 l/m 0,2 km/h (0 Bft) SW 232 0 min 0,000 mm 0,0 UV-I 0 W/m 15,3 C 16,3 C 1,6 km/h (1 Bft) 100,00 %
02.09.2016 02:12 16,3 C 94 % 1019,8 hPa 0,0 l/m 1,1 km/h (1 Bft) SW 232 0 min 0,000 mm 0,0 UV-I 0 W/m 15,3 C 16,3 C 3,2 km/h (1 Bft) 100,00 %
02.09.2016 02:14 16,3 C 94 % 1019,8 hPa 0,0 l/m 0,8 km/h (0 Bft) SW 232 0 min 0,000 mm 0,0 UV-I 0 W/m 15,3 C 16,3 C 3,2 km/h (1 Bft) 100,00 %
02.09.2016 02:16 16,2 C 94 % 1019,8 hPa 0,0 l/m 0,9 km/h (0 Bft) SW 232 0 min 0,000 mm 0,0 UV-I 0 W/m 15,2 C 16,2 C 3,2 km/h (1 Bft) 100,00 %
02.09.2016 02:18 16,2 C 94 % 1019,8 hPa 0,0 l/m 0,9 km/h (0 Bft) SW 232 0 min 0,000 mm 0,0 UV-I 0 W/m 15,2 C 16,2 C 3,2 km/h (1 Bft) 100,00 %
02.09.2016 02:20 16,1 C 94 % 1019,7 hPa 0,0 l/m 2,4 km/h (1 Bft) S 188 0 min 0,000 mm 0,0 UV-I 0 W/m 15,1 C 16,1 C 4,8 km/h (1 Bft) 100,00 %
02.09.2016 02:22 16,2 C 95 % 1019,7 hPa 0,0 l/m 2,8 km/h (1 Bft) S 188 0 min 0,000 mm 0,0 UV-I 0 W/m 15,4 C 16,2 C 4,8 km/h (1 Bft) 100,00 %
02.09.2016 02:24 16,2 C 95 % 1019,7 hPa 0,0 l/m 4,1 km/h (1 Bft) S 188 0 min 0,000 mm 0,0 UV-I 0 W/m 15,4 C 16,2 C 6,4 km/h (2 Bft) 100,00 %
02.09.2016 02:26 16,3 C 95 % 1019,8 hPa 0,0 l/m 3,7 km/h (1 Bft) S 188 0 min 0,000 mm 0,0 UV-I 0 W/m 15,5 C 16,3 C 4,8 km/h (1 Bft) 100,00 %
02.09.2016 02:28 16,3 C 95 % 1019,7 hPa 0,0 l/m 4,4 km/h (1 Bft) S 184 0 min 0,000 mm 0,0 UV-I 0 W/m 15,5 C 16,3 C 6,4 km/h (2 Bft) 100,00 %
02.09.2016 02:30 16,3 C 95 % 1019,8 hPa 0,0 l/m 4,0 km/h (1 Bft) S 178 0 min 0,000 mm 0,0 UV-I 0 W/m 15,5 C 16,3 C 6,4 km/h (2 Bft) 100,00 %
02.09.2016 02:32 16,4 C 95 % 1019,8 hPa 0,0 l/m 3,7 km/h (1 Bft) S 178 0 min 0,000 mm 0,0 UV-I 0 W/m 15,6 C 16,4 C 4,8 km/h (1 Bft) 100,00 %
02.09.2016 02:34 16,4 C 95 % 1019,7 hPa 0,0 l/m 2,5 km/h (1 Bft) S 178 0 min 0,000 mm 0,0 UV-I 0 W/m 15,6 C 16,4 C 4,8 km/h (1 Bft) 100,00 %
02.09.2016 02:36 16,4 C 95 % 1019,7 hPa 0,0 l/m 3,0 km/h (1 Bft) S 171 0 min 0,000 mm 0,0 UV-I 0 W/m 15,6 C 16,4 C 6,4 km/h (2 Bft) 100,00 %
02.09.2016 02:38 16,4 C 95 % 1019,7 hPa 0,0 l/m 2,8 km/h (1 Bft) S 173 0 min 0,000 mm 0,0 UV-I 0 W/m 15,6 C 16,4 C 6,4 km/h (2 Bft) 97,87 %
02.09.2016 02:40 16,5 C 95 % 1019,7 hPa 0,0 l/m 2,9 km/h (1 Bft) S 174 0 min 0,000 mm 0,0 UV-I 0 W/m 15,7 C 16,5 C 4,8 km/h (1 Bft) 97,44 %
02.09.2016 02:42 16,5 C 95 % 1019,7 hPa 0,0 l/m 2,6 km/h (1 Bft) S 174 0 min 0,000 mm 0,0 UV-I 0 W/m 15,7 C 16,5 C 4,8 km/h (1 Bft) 95,74 %
02.09.2016 02:44 16,5 C 95 % 1019,7 hPa 0,0 l/m 2,6 km/h (1 Bft) S 173 0 min 0,000 mm 0,0 UV-I 0 W/m 15,7 C 16,5 C 3,2 km/h (1 Bft) 98,11 %
02.09.2016 02:46 16,5 C 94 % 1019,8 hPa 0,0 l/m 2,4 km/h (1 Bft) S 173 0 min 0,000 mm 0,0 UV-I 0 W/m 15,5 C 16,5 C 4,8 km/h (1 Bft) 97,14 %
02.09.2016 02:48 16,4 C 94 % 1019,8 hPa 0,0 l/m 2,4 km/h (1 Bft) S 174 0 min 0,000 mm 0,0 UV-I 0 W/m 15,4 C 16,4 C 3,2 km/h (1 Bft) 98,11 %
02.09.2016 02:50 16,4 C 94 % 1019,8 hPa 0,0 l/m 1,2 km/h (1 Bft) S 173 0 min 0,000 mm 0,0 UV-I 0 W/m 15,4 C 16,4 C 3,2 km/h (1 Bft) 98,11 %
02.09.2016 02:52 16,3 C 94 % 1019,7 hPa 0,0 l/m 0,8 km/h (0 Bft) S 173 0 min 0,000 mm 0,0 UV-I 0 W/m 15,3 C 16,3 C 1,6 km/h (1 Bft) 97,87 %
02.09.2016 02:54 16,2 C 94 % 1019,7 hPa 0,0 l/m 1,4 km/h (1 Bft) S 173 0 min 0,000 mm 0,0 UV-I 0 W/m 15,2 C 16,2 C 3,2 km/h (1 Bft) 97,37 %
02.09.2016 02:56 16,3 C 94 % 1019,7 hPa 0,0 l/m 1,8 km/h (1 Bft) S 174 0 min 0,000 mm 0,0 UV-I 0 W/m 15,3 C 16,3 C 3,2 km/h (1 Bft) 98,00 %
02.09.2016 02:58 16,2 C 94 % 1019,8 hPa 0,0 l/m 2,5 km/h (1 Bft) S 173 0 min 0,000 mm 0,0 UV-I 0 W/m 15,2 C 16,2 C 3,2 km/h (1 Bft) 96,23 %
02.09.2016 03:00 16,2 C 94 % 1019,7 hPa 0,0 l/m 1,7 km/h (1 Bft) S 173 0 min 0,000 mm 0,0 UV-I 0 W/m 15,2 C 16,2 C 3,2 km/h (1 Bft) 100,00 %
02.09.2016 03:02 16,2 C 94 % 1019,7 hPa 0,0 l/m 0,2 km/h (0 Bft) S 174 0 min 0,000 mm 0,0 UV-I 0 W/m 15,2 C 16,2 C 1,6 km/h (1 Bft) 96,88 %
02.09.2016 03:04 16,2 C 95 % 1019,6 hPa 0,0 l/m 0,0 km/h (0 Bft) S 173 0 min 0,000 mm 0,0 UV-I 0 W/m 15,4 C 16,2 C 1,6 km/h (1 Bft) 97,62 %
02.09.2016 03:06 16,1 C 94 % 1019,6 hPa 0,0 l/m 0,2 km/h (0 Bft) S 173 0 min 0,000 mm 0,0 UV-I 0 W/m 15,1 C 16,1 C 1,6 km/h (1 Bft) 95,74 %
02.09.2016 03:08 16,1 C 94 % 1019,6 hPa 0,0 l/m 0,4 km/h (0 Bft) S 173 0 min 0,000 mm 0,0 UV-I 0 W/m 15,1 C 16,1 C 1,6 km/h (1 Bft) 98,00 %
02.09.2016 03:10 16,1 C 95 % 1019,6 hPa 0,0 l/m 0,7 km/h (0 Bft) S 173 0 min 0,000 mm 0,0 UV-I 0 W/m 15,3 C 16,1 C 1,6 km/h (1 Bft) 97,87 %
02.09.2016 03:12 16,1 C 95 % 1019,6 hPa 0,0 l/m 0,4 km/h (0 Bft) S 173 0 min 0,000 mm 0,0 UV-I 0 W/m 15,3 C 16,1 C 1,6 km/h (1 Bft) 98,00 %
02.09.2016 03:14 16,1 C 95 % 1019,6 hPa 0,0 l/m 0,1 km/h (0 Bft) S 173 0 min 0,000 mm 0,0 UV-I 0 W/m 15,3 C 16,1 C 1,6 km/h (1 Bft) 100,00 %
02.09.2016 03:16 16,1 C 95 % 1019,6 hPa 0,0 l/m 0,4 km/h (0 Bft) S 173 0 min 0,000 mm 0,0 UV-I 0 W/m 15,3 C 16,1 C 1,6 km/h (1 Bft) 98,11 %
02.09.2016 03:18 16,1 C 95 % 1019,6 hPa 0,0 l/m 0,0 km/h (0 Bft) S 173 0 min 0,000 mm 0,0 UV-I 0 W/m 15,3 C 16,1 C 0,0 km/h (0 Bft) 100,00 %
02.09.2016 03:20 16,2 C 95 % 1019,6 hPa 0,0 l/m 0,7 km/h (0 Bft) S 173 0 min 0,000 mm 0,0 UV-I 0 W/m 15,4 C 16,2 C 1,6 km/h (1 Bft) 100,00 %
02.09.2016 03:22 16,1 C 95 % 1019,7 hPa 0,0 l/m 1,1 km/h (1 Bft) S 173 0 min 0,000 mm 0,0 UV-I 0 W/m 15,3 C 16,1 C 1,6 km/h (1 Bft) 97,87 %
02.09.2016 03:24 16,1 C 95 % 1019,7 hPa 0,0 l/m 0,9 km/h (0 Bft) S 173 0 min 0,000 mm 0,0 UV-I 0 W/m 15,3 C 16,1 C 1,6 km/h (1 Bft) 100,00 %
02.09.2016 03:26 16,0 C 95 % 1019,7 hPa 0,0 l/m 0,1 km/h (0 Bft) S 173 0 min 0,000 mm 0,0 UV-I 0 W/m 15,2 C 16,0 C 1,6 km/h (1 Bft) 97,87 %
02.09.2016 03:28 15,9 C 94 % 1019,7 hPa 0,0 l/m 0,0 km/h (0 Bft) S 173 0 min 0,000 mm 0,0 UV-I 0 W/m 14,9 C 15,9 C 0,0 km/h (0 Bft) 97,87 %
02.09.2016 03:30 15,8 C 94 % 1019,7 hPa 0,0 l/m 0,0 km/h (0 Bft) S 173 0 min 0,000 mm 0,0 UV-I 0 W/m 14,8 C 15,8 C 0,0 km/h (0 Bft) 100,00 %
02.09.2016 03:32 15,7 C 94 % 1019,7 hPa 0,0 l/m 0,0 km/h (0 Bft) S 173 0 min 0,000 mm 0,0 UV-I 0 W/m 14,7 C 15,7 C 1,6 km/h (1 Bft) 100,00 %
02.09.2016 03:34 15,6 C 94 % 1019,7 hPa 0,0 l/m 0,1 km/h (0 Bft) S 173 0 min 0,000 mm 0,0 UV-I 0 W/m 14,6 C 15,6 C 1,6 km/h (1 Bft) 97,87 %
02.09.2016 03:36 15,6 C 95 % 1019,7 hPa 0,0 l/m 0,4 km/h (0 Bft) S 173 0 min 0,000 mm 0,0 UV-I 0 W/m 14,8 C 15,6 C 1,6 km/h (1 Bft) 100,00 %
02.09.2016 03:38 15,6 C 95 % 1019,7 hPa 0,0 l/m 0,2 km/h (0 Bft) S 173 0 min 0,000 mm 0,0 UV-I 0 W/m 14,8 C 15,6 C 1,6 km/h (1 Bft) 97,92 %
02.09.2016 03:40 15,6 C 95 % 1019,7 hPa 0,0 l/m 0,1 km/h (0 Bft) S 173 0 min 0,000 mm 0,0 UV-I 0 W/m 14,8 C 15,6 C 1,6 km/h (1 Bft) 100,00 %
02.09.2016 03:42 15,7 C 95 % 1019,7 hPa 0,0 l/m 0,5 km/h (0 Bft) S 173 0 min 0,000 mm 0,0 UV-I 0 W/m 14,9 C 15,7 C 1,6 km/h (1 Bft) 97,92 %
02.09.2016 03:44 15,7 C 95 % 1019,6 hPa 0,0 l/m 0,6 km/h (0 Bft) S 173 0 min 0,000 mm 0,0 UV-I 0 W/m 14,9 C 15,7 C 1,6 km/h (1 Bft) 100,00 %
02.09.2016 03:46 15,7 C 95 % 1019,6 hPa 0,0 l/m 0,4 km/h (0 Bft) S 174 0 min 0,000 mm 0,0 UV-I 0 W/m 14,9 C 15,7 C 1,6 km/h (1 Bft) 100,00 %
02.09.2016 03:48 15,7 C 95 % 1019,6 hPa 0,0 l/m 0,5 km/h (0 Bft) S 173 0 min 0,000 mm 0,0 UV-I 0 W/m 14,9 C 15,7 C 1,6 km/h (1 Bft) 100,00 %
02.09.2016 03:50 15,7 C 95 % 1019,5 hPa 0,0 l/m 0,5 km/h (0 Bft) S 173 0 min 0,000 mm 0,0 UV-I 0 W/m 14,9 C 15,7 C 1,6 km/h (1 Bft) 100,00 %
02.09.2016 03:52 15,7 C 95 % 1019,6 hPa 0,0 l/m 2,1 km/h (1 Bft) S 173 0 min 0,000 mm 0,0 UV-I 0 W/m 14,9 C 15,7 C 3,2 km/h (1 Bft) 97,87 %
02.09.2016 03:54 15,7 C 96 % 1019,6 hPa 0,0 l/m 1,3 km/h (1 Bft) S 173 0 min 0,000 mm 0,0 UV-I 0 W/m 15,1 C 15,7 C 3,2 km/h (1 Bft) 100,00 %
02.09.2016 03:56 15,7 C 95 % 1019,6 hPa 0,0 l/m 1,9 km/h (1 Bft) S 174 0 min 0,000 mm 0,0 UV-I 0 W/m 14,9 C 15,7 C 3,2 km/h (1 Bft) 100,00 %
02.09.2016 03:58 15,6 C 95 % 1019,5 hPa 0,0 l/m 2,3 km/h (1 Bft) S 174 0 min 0,000 mm 0,0 UV-I 0 W/m 14,8 C 15,6 C 3,2 km/h (1 Bft) 100,00 %
02.09.2016 04:00 15,5 C 95 % 1019,6 hPa 0,0 l/m 1,9 km/h (1 Bft) S 173 0 min 0,000 mm 0,0 UV-I 0 W/m 14,7 C 15,5 C 3,2 km/h (1 Bft) 97,37 %
02.09.2016 04:02 15,4 C 95 % 1019,5 hPa 0,0 l/m 1,6 km/h (1 Bft) S 173 0 min 0,000 mm 0,0 UV-I 0 W/m 14,6 C 15,4 C 1,6 km/h (1 Bft) 96,00 %
02.09.2016 04:04 15,4 C 95 % 1019,5 hPa 0,0 l/m 2,0 km/h (1 Bft) S 173 0 min 0,000 mm 0,0 UV-I 0 W/m 14,6 C 15,4 C 3,2 km/h (1 Bft) 100,00 %
02.09.2016 04:06 15,3 C 95 % 1019,5 hPa 0,0 l/m 1,9 km/h (1 Bft) S 173 0 min 0,000 mm 0,0 UV-I 0 W/m 14,5 C 15,3 C 3,2 km/h (1 Bft) 100,00 %
02.09.2016 04:08 15,3 C 95 % 1019,5 hPa 0,0 l/m 2,3 km/h (1 Bft) S 173 0 min 0,000 mm 0,0 UV-I 0 W/m 14,5 C 15,3 C 3,2 km/h (1 Bft) 100,00 %
02.09.2016 04:10 15,3 C 95 % 1019,5 hPa 0,0 l/m 2,2 km/h (1 Bft) S 173 0 min 0,000 mm 0,0 UV-I 0 W/m 14,5 C 15,3 C 3,2 km/h (1 Bft) 100,00 %
02.09.2016 04:12 15,3 C 95 % 1019,5 hPa 0,0 l/m 1,4 km/h (1 Bft) S 173 0 min 0,000 mm 0,0 UV-I 0 W/m 14,5 C 15,3 C 1,6 km/h (1 Bft) 98,11 %
02.09.2016 04:14 15,2 C 95 % 1019,5 hPa 0,0 l/m 1,1 km/h (1 Bft) S 174 0 min 0,000 mm 0,0 UV-I 0 W/m 14,4 C 15,2 C 3,2 km/h (1 Bft) 100,00 %
02.09.2016 04:16 15,2 C 95 % 1019,5 hPa 0,0 l/m 2,5 km/h (1 Bft) S 173 0 min 0,000 mm 0,0 UV-I 0 W/m 14,4 C 15,2 C 3,2 km/h (1 Bft) 100,00 %
02.09.2016 04:18 15,2 C 96 % 1019,4 hPa 0,0 l/m 3,6 km/h (1 Bft) S 173 0 min 0,000 mm 0,0 UV-I 0 W/m 14,6 C 15,2 C 4,8 km/h (1 Bft) 97,37 %
02.09.2016 04:20 15,2 C 96 % 1019,4 hPa 0,0 l/m 2,3 km/h (1 Bft) S 174 0 min 0,000 mm 0,0 UV-I 0 W/m 14,6 C 15,2 C 3,2 km/h (1 Bft) 100,00 %
02.09.2016 04:22 15,3 C 96 % 1019,4 hPa 0,0 l/m 2,3 km/h (1 Bft) S 173 0 min 0,000 mm 0,0 UV-I 0 W/m 14,7 C 15,3 C 3,2 km/h (1 Bft) 97,44 %
02.09.2016 04:24 15,3 C 96 % 1019,4 hPa 0,0 l/m 2,9 km/h (1 Bft) S 173 0 min 0,000 mm 0,0 UV-I 0 W/m 14,7 C 15,3 C 3,2 km/h (1 Bft) 100,00 %
02.09.2016 04:26 15,3 C 96 % 1019,4 hPa 0,0 l/m 3,0 km/h (1 Bft) S 173 0 min 0,000 mm 0,0 UV-I 0 W/m 14,7 C 15,3 C 4,8 km/h (1 Bft) 100,00 %
02.09.2016 04:28 15,3 C 96 % 1019,4 hPa 0,0 l/m 1,8 km/h (1 Bft) S 173 0 min 0,000 mm 0,0 UV-I 0 W/m 14,7 C 15,3 C 3,2 km/h (1 Bft) 100,00 %
02.09.2016 04:30 15,2 C 96 % 1019,4 hPa 0,0 l/m 2,7 km/h (1 Bft) S 174 0 min 0,000 mm 0,0 UV-I 0 W/m 14,6 C 15,2 C 4,8 km/h (1 Bft) 100,00 %
02.09.2016 04:32 15,2 C 96 % 1019,4 hPa 0,0 l/m 2,2 km/h (1 Bft) S 174 0 min 0,000 mm 0,0 UV-I 0 W/m 14,6 C 15,2 C 4,8 km/h (1 Bft) 100,00 %
02.09.2016 04:34 15,2 C 96 % 1019,4 hPa 0,0 l/m 2,8 km/h (1 Bft) S 174 0 min 0,000 mm 0,0 UV-I 0 W/m 14,6 C 15,2 C 4,8 km/h (1 Bft) 100,00 %
02.09.2016 04:36 15,2 C 96 % 1019,4 hPa 0,0 l/m 2,6 km/h (1 Bft) S 174 0 min 0,000 mm 0,0 UV-I 0 W/m 14,6 C 15,2 C 4,8 km/h (1 Bft) 100,00 %
02.09.2016 04:38 15,2 C 96 % 1019,4 hPa 0,0 l/m 1,8 km/h (1 Bft) S 174 0 min 0,000 mm 0,0 UV-I 0 W/m 14,6 C 15,2 C 3,2 km/h (1 Bft) 100,00 %
02.09.2016 04:40 15,2 C 96 % 1019,4 hPa 0,0 l/m 2,6 km/h (1 Bft) S 174 0 min 0,000 mm 0,0 UV-I 0 W/m 14,6 C 15,2 C 8,0 km/h (2 Bft) 97,87 %
02.09.2016 04:42 15,2 C 96 % 1019,4 hPa 0,0 l/m 2,9 km/h (1 Bft) S 175 0 min 0,000 mm 0,0 UV-I 0 W/m 14,6 C 15,2 C 4,8 km/h (1 Bft) 97,37 %
02.09.2016 04:44 15,3 C 96 % 1019,4 hPa 0,0 l/m 2,6 km/h (1 Bft) S 175 0 min 0,000 mm 0,0 UV-I 0 W/m 14,7 C 15,3 C 3,2 km/h (1 Bft) 96,23 %
02.09.2016 04:46 15,2 C 96 % 1019,4 hPa 0,0 l/m 3,3 km/h (1 Bft) S 175 0 min 0,000 mm 0,0 UV-I 0 W/m 14,6 C 15,2 C 4,8 km/h (1 Bft) 98,00 %
02.09.2016 04:48 15,2 C 96 % 1019,4 hPa 0,0 l/m 4,0 km/h (1 Bft) S 175 0 min 0,000 mm 0,0 UV-I 0 W/m 14,6 C 15,2 C 4,8 km/h (1 Bft) 97,37 %
02.09.2016 04:50 15,2 C 96 % 1019,3 hPa 0,0 l/m 3,2 km/h (1 Bft) S 175 0 min 0,000 mm 0,0 UV-I 0 W/m 14,6 C 15,2 C 4,8 km/h (1 Bft) 98,00 %
02.09.2016 04:52 15,2 C 96 % 1019,4 hPa 0,0 l/m 4,0 km/h (1 Bft) S 185 0 min 0,000 mm 0,0 UV-I 0 W/m 14,6 C 15,2 C 4,8 km/h (1 Bft) 97,87 %
02.09.2016 04:54 15,2 C 96 % 1019,4 hPa 0,0 l/m 2,5 km/h (1 Bft) S 185 0 min 0,000 mm 0,0 UV-I 0 W/m 14,6 C 15,2 C 4,8 km/h (1 Bft) 97,87 %
02.09.2016 04:56 15,2 C 96 % 1019,4 hPa 0,0 l/m 2,0 km/h (1 Bft) S 185 0 min 0,000 mm 0,0 UV-I 0 W/m 14,6 C 15,2 C 3,2 km/h (1 Bft) 96,00 %
02.09.2016 04:58 15,2 C 96 % 1019,4 hPa 0,0 l/m 0,3 km/h (0 Bft) S 185 0 min 0,000 mm 0,0 UV-I 0 W/m 14,6 C 15,2 C 1,6 km/h (1 Bft) 100,00 %
02.09.2016 05:00 15,2 C 96 % 1019,4 hPa 0,0 l/m 0,2 km/h (0 Bft) S 185 0 min 0,000 mm 0,0 UV-I 0 W/m 14,6 C 15,2 C 1,6 km/h (1 Bft) 96,00 %
02.09.2016 05:02 15,2 C 96 % 1019,5 hPa 0,0 l/m 0,2 km/h (0 Bft) S 185 0 min 0,000 mm 0,0 UV-I 0 W/m 14,6 C 15,2 C 1,6 km/h (1 Bft) 98,00 %
02.09.2016 05:04 15,2 C 96 % 1019,5 hPa 0,0 l/m 0,9 km/h (0 Bft) S 185 0 min 0,000 mm 0,0 UV-I 0 W/m 14,6 C 15,2 C 3,2 km/h (1 Bft) 95,74 %
02.09.2016 05:06 15,2 C 96 % 1019,5 hPa 0,0 l/m 0,4 km/h (0 Bft) S 185 0 min 0,000 mm 0,0 UV-I 0 W/m 14,6 C 15,2 C 1,6 km/h (1 Bft) 98,00 %
02.09.2016 05:08 15,2 C 96 % 1019,5 hPa 0,0 l/m 0,0 km/h (0 Bft) S 185 0 min 0,000 mm 0,0 UV-I 0 W/m 14,6 C 15,2 C 0,0 km/h (0 Bft) 97,87 %
02.09.2016 05:10 15,3 C 96 % 1019,5 hPa 0,0 l/m 0,0 km/h (0 Bft) S 185 0 min 0,000 mm 0,0 UV-I 0 W/m 14,7 C 15,3 C 0,0 km/h (0 Bft) 94,74 %
02.09.2016 05:12 15,2 C 96 % 1019,5 hPa 0,0 l/m 0,0 km/h (0 Bft) S 185 0 min 0,000 mm 0,0 UV-I 0 W/m 14,6 C 15,2 C 0,0 km/h (0 Bft) 98,11 %
02.09.2016 05:14 15,3 C 96 % 1019,5 hPa 0,0 l/m 0,0 km/h (0 Bft) S 185 0 min 0,000 mm 0,0 UV-I 0 W/m 14,7 C 15,3 C 0,0 km/h (0 Bft) 97,87 %
02.09.2016 05:16 15,3 C 96 % 1019,5 hPa 0,0 l/m 0,0 km/h (0 Bft) S 185 0 min 0,000 mm 0,0 UV-I 0 W/m 14,7 C 15,3 C 1,6 km/h (1 Bft) 97,87 %
02.09.2016 05:18 15,3 C 96 % 1019,5 hPa 0,0 l/m 0,3 km/h (0 Bft) S 185 0 min 0,000 mm 0,0 UV-I 0 W/m 14,7 C 15,3 C 1,6 km/h (1 Bft) 96,00 %
02.09.2016 05:20 15,4 C 96 % 1019,5 hPa 0,0 l/m 1,6 km/h (1 Bft) S 185 0 min 0,000 mm 0,0 UV-I 0 W/m 14,8 C 15,4 C 3,2 km/h (1 Bft) 100,00 %
02.09.2016 05:22 15,4 C 96 % 1019,5 hPa 0,0 l/m 2,2 km/h (1 Bft) S 185 0 min 0,000 mm 0,0 UV-I 0 W/m 14,8 C 15,4 C 3,2 km/h (1 Bft) 100,00 %
02.09.2016 05:24 15,3 C 96 % 1019,6 hPa 0,0 l/m 2,5 km/h (1 Bft) S 185 0 min 0,000 mm 0,0 UV-I 0 W/m 14,7 C 15,3 C 3,2 km/h (1 Bft) 97,56 %
02.09.2016 05:26 15,3 C 96 % 1019,5 hPa 0,0 l/m 1,4 km/h (1 Bft) S 185 0 min 0,000 mm 0,0 UV-I 0 W/m 14,7 C 15,3 C 3,2 km/h (1 Bft) 97,87 %
02.09.2016 05:28 15,3 C 96 % 1019,5 hPa 0,0 l/m 1,4 km/h (1 Bft) S 185 0 min 0,000 mm 0,0 UV-I 0 W/m 14,7 C 15,3 C 3,2 km/h (1 Bft) 100,00 %
02.09.2016 05:30 15,3 C 96 % 1019,5 hPa 0,0 l/m 0,7 km/h (0 Bft) S 185 0 min 0,000 mm 0,0 UV-I 0 W/m 14,7 C 15,3 C 3,2 km/h (1 Bft) 100,00 %
02.09.2016 05:32 15,3 C 96 % 1019,5 hPa 0,0 l/m 1,6 km/h (1 Bft) S 185 0 min 0,000 mm 0,0 UV-I 0 W/m 14,7 C 15,3 C 3,2 km/h (1 Bft) 100,00 %
02.09.2016 05:34 15,2 C 96 % 1019,6 hPa 0,0 l/m 1,4 km/h (1 Bft) S 185 0 min 0,000 mm 0,0 UV-I 0 W/m 14,6 C 15,2 C 4,8 km/h (1 Bft) 95,74 %
02.09.2016 05:36 15,2 C 96 % 1019,5 hPa 0,0 l/m 2,2 km/h (1 Bft) S 185 0 min 0,000 mm 0,0 UV-I 0 W/m 14,6 C 15,2 C 4,8 km/h (1 Bft) 100,00 %
02.09.2016 05:38 15,2 C 96 % 1019,5 hPa 0,0 l/m 1,9 km/h (1 Bft) S 185 0 min 0,000 mm 0,0 UV-I 0 W/m 14,6 C 15,2 C 3,2 km/h (1 Bft) 100,00 %
02.09.2016 05:40 15,3 C 96 % 1019,5 hPa 0,0 l/m 1,8 km/h (1 Bft) S 185 0 min 0,000 mm 0,0 UV-I 0 W/m 14,7 C 15,3 C 3,2 km/h (1 Bft) 100,00 %
02.09.2016 05:42 15,3 C 96 % 1019,6 hPa 0,0 l/m 2,9 km/h (1 Bft) S 185 0 min 0,000 mm 0,0 UV-I 0 W/m 14,7 C 15,3 C 4,8 km/h (1 Bft) 100,00 %
02.09.2016 05:44 15,3 C 96 % 1019,6 hPa 0,0 l/m 2,2 km/h (1 Bft) S 185 0 min 0,000 mm 0,0 UV-I 0 W/m 14,7 C 15,3 C 3,2 km/h (1 Bft) 100,00 %
02.09.2016 05:46 15,4 C 96 % 1019,6 hPa 0,0 l/m 1,7 km/h (1 Bft) S 185 0 min 0,000 mm 0,0 UV-I 0 W/m 14,8 C 15,4 C 3,2 km/h (1 Bft) 100,00 %
02.09.2016 05:48 15,4 C 96 % 1019,6 hPa 0,0 l/m 1,7 km/h (1 Bft) S 185 0 min 0,000 mm 0,0 UV-I 0 W/m 14,8 C 15,4 C 3,2 km/h (1 Bft) 100,00 %
02.09.2016 05:50 15,4 C 96 % 1019,6 hPa 0,0 l/m 1,8 km/h (1 Bft) S 185 0 min 0,000 mm 0,0 UV-I 0 W/m 14,8 C 15,4 C 3,2 km/h (1 Bft) 100,00 %
02.09.2016 05:52 15,4 C 96 % 1019,6 hPa 0,0 l/m 2,1 km/h (1 Bft) S 185 0 min 0,000 mm 0,0 UV-I 0 W/m 14,8 C 15,4 C 3,2 km/h (1 Bft) 100,00 %
02.09.2016 05:54 15,4 C 96 % 1019,5 hPa 0,0 l/m 2,3 km/h (1 Bft) S 185 0 min 0,000 mm 0,0 UV-I 0 W/m 14,8 C 15,4 C 4,8 km/h (1 Bft) 97,56 %
02.09.2016 05:56 15,4 C 96 % 1019,6 hPa 0,0 l/m 2,1 km/h (1 Bft) S 185 0 min 0,000 mm 0,0 UV-I 0 W/m 14,8 C 15,4 C 3,2 km/h (1 Bft) 100,00 %
02.09.2016 05:58 15,4 C 96 % 1019,6 hPa 0,0 l/m 2,5 km/h (1 Bft) S 185 0 min 0,000 mm 0,0 UV-I 0 W/m 14,8 C 15,4 C 3,2 km/h (1 Bft) 98,11 %
02.09.2016 06:00 15,4 C 96 % 1019,6 hPa 0,0 l/m 3,3 km/h (1 Bft) S 185 0 min 0,000 mm 0,0 UV-I 0 W/m 14,8 C 15,4 C 4,8 km/h (1 Bft) 100,00 %
02.09.2016 06:02 15,4 C 96 % 1019,6 hPa 0,0 l/m 2,5 km/h (1 Bft) S 185 0 min 0,000 mm 0,0 UV-I 0 W/m 14,8 C 15,4 C 4,8 km/h (1 Bft) 97,87 %
02.09.2016 06:04 15,4 C 96 % 1019,6 hPa 0,0 l/m 1,5 km/h (1 Bft) S 185 0 min 0,000 mm 0,0 UV-I 0 W/m 14,8 C 15,4 C 3,2 km/h (1 Bft) 100,00 %
02.09.2016 06:06 15,4 C 96 % 1019,6 hPa 0,0 l/m 1,1 km/h (1 Bft) S 185 0 min 0,000 mm 0,0 UV-I 0 W/m 14,8 C 15,4 C 3,2 km/h (1 Bft) 100,00 %
02.09.2016 06:08 15,4 C 96 % 1019,7 hPa 0,0 l/m 2,7 km/h (1 Bft) S 185 0 min 0,000 mm 0,0 UV-I 0 W/m 14,8 C 15,4 C 3,2 km/h (1 Bft) 100,00 %
02.09.2016 06:10 15,4 C 96 % 1019,7 hPa 0,0 l/m 1,5 km/h (1 Bft) S 185 0 min 0,000 mm 0,0 UV-I 0 W/m 14,8 C 15,4 C 3,2 km/h (1 Bft) 100,00 %
02.09.2016 06:12 15,4 C 96 % 1019,7 hPa 0,0 l/m 1,4 km/h (1 Bft) S 185 0 min 0,000 mm 0,0 UV-I 0 W/m 14,8 C 15,4 C 1,6 km/h (1 Bft) 100,00 %
02.09.2016 06:14 15,4 C 96 % 1019,7 hPa 0,0 l/m 1,6 km/h (1 Bft) S 185 0 min 0,000 mm 0,0 UV-I 0 W/m 14,8 C 15,4 C 3,2 km/h (1 Bft) 100,00 %
02.09.2016 06:16 15,4 C 96 % 1019,6 hPa 0,0 l/m 2,1 km/h (1 Bft) S 185 0 min 0,000 mm 0,0 UV-I 0 W/m 14,8 C 15,4 C 3,2 km/h (1 Bft) 98,11 %
02.09.2016 06:18 15,4 C 96 % 1019,6 hPa 0,0 l/m 2,1 km/h (1 Bft) S 185 0 min 0,000 mm 0,0 UV-I 0 W/m 14,8 C 15,4 C 3,2 km/h (1 Bft) 100,00 %
02.09.2016 06:20 15,4 C 96 % 1019,6 hPa 0,0 l/m 2,7 km/h (1 Bft) S 185 0 min 0,000 mm 0,0 UV-I 0 W/m 14,8 C 15,4 C 4,8 km/h (1 Bft) 100,00 %
02.09.2016 06:22 15,4 C 96 % 1019,7 hPa 0,0 l/m 2,8 km/h (1 Bft) S 185 0 min 0,000 mm 0,0 UV-I 4 W/m 14,8 C 15,4 C 4,8 km/h (1 Bft) 100,00 %
02.09.2016 06:24 15,3 C 96 % 1019,7 hPa 0,0 l/m 3,4 km/h (1 Bft) S 185 0 min 0,000 mm 0,0 UV-I 5 W/m 14,7 C 15,3 C 4,8 km/h (1 Bft) 97,37 %
02.09.2016 06:26 15,3 C 96 % 1019,7 hPa 0,0 l/m 3,4 km/h (1 Bft) S 185 0 min 0,000 mm 0,0 UV-I 5 W/m 14,7 C 15,3 C 6,4 km/h (2 Bft) 100,00 %
02.09.2016 06:28 15,4 C 96 % 1019,8 hPa 0,0 l/m 3,9 km/h (1 Bft) S 185 0 min 0,000 mm 0,0 UV-I 6 W/m 14,8 C 15,4 C 6,4 km/h (2 Bft) 96,00 %
02.09.2016 06:30 15,4 C 96 % 1019,7 hPa 0,0 l/m 3,3 km/h (1 Bft) S-SW 192 0 min 0,000 mm 0,0 UV-I 7 W/m 14,8 C 15,4 C 4,8 km/h (1 Bft) 100,00 %
02.09.2016 06:32 15,4 C 96 % 1019,8 hPa 0,0 l/m 3,5 km/h (1 Bft) S-SW 194 0 min 0,000 mm 0,0 UV-I 8 W/m 14,8 C 15,4 C 4,8 km/h (1 Bft) 100,00 %
02.09.2016 06:34 15,4 C 96 % 1019,8 hPa 0,0 l/m 2,6 km/h (1 Bft) S-SW 194 2 min 0,000 mm 0,0 UV-I 11 W/m 14,8 C 15,4 C 4,8 km/h (1 Bft) 97,37 %
02.09.2016 06:36 15,4 C 96 % 1019,8 hPa 0,0 l/m 4,0 km/h (1 Bft) S-SW 194 0 min 0,000 mm 0,0 UV-I 12 W/m 14,8 C 15,4 C 4,8 km/h (1 Bft) 100,00 %
02.09.2016 06:38 15,4 C 96 % 1019,8 hPa 0,0 l/m 3,5 km/h (1 Bft) S 181 0 min 0,000 mm 0,0 UV-I 12 W/m 14,8 C 15,4 C 4,8 km/h (1 Bft) 97,87 %
02.09.2016 06:40 15,3 C 96 % 1019,8 hPa 0,0 l/m 1,8 km/h (1 Bft) S 180 0 min 0,000 mm 0,0 UV-I 14 W/m 14,7 C 15,3 C 3,2 km/h (1 Bft) 100,00 %
02.09.2016 06:42 15,2 C 96 % 1019,9 hPa 0,0 l/m 1,2 km/h (1 Bft) S 180 0 min 0,000 mm 0,0 UV-I 16 W/m 14,6 C 15,2 C 3,2 km/h (1 Bft) 92,59 %
02.09.2016 06:44 15,2 C 96 % 1019,9 hPa 0,0 l/m 2,2 km/h (1 Bft) S 180 0 min 0,000 mm 0,0 UV-I 18 W/m 14,6 C 15,2 C 3,2 km/h (1 Bft) 95,65 %
02.09.2016 06:46 15,2 C 96 % 1019,9 hPa 0,0 l/m 2,2 km/h (1 Bft) S 180 0 min 0,000 mm 0,0 UV-I 19 W/m 14,6 C 15,2 C 3,2 km/h (1 Bft) 96,00 %
02.09.2016 06:48 15,2 C 96 % 1019,8 hPa 0,0 l/m 1,7 km/h (1 Bft) S 180 0 min 0,000 mm 0,0 UV-I 22 W/m 14,6 C 15,2 C 3,2 km/h (1 Bft) 97,87 %
02.09.2016 06:50 15,2 C 96 % 1019,9 hPa 0,0 l/m 1,8 km/h (1 Bft) S 180 0 min 0,000 mm 0,0 UV-I 26 W/m 14,6 C 15,2 C 3,2 km/h (1 Bft) 98,00 %
02.09.2016 06:52 15,3 C 96 % 1019,9 hPa 0,0 l/m 3,0 km/h (1 Bft) S 180 0 min 0,000 mm 0,0 UV-I 28 W/m 14,7 C 15,3 C 4,8 km/h (1 Bft) 97,56 %
02.09.2016 06:54 15,2 C 96 % 1019,9 hPa 0,0 l/m 2,6 km/h (1 Bft) S 180 0 min 0,000 mm 0,0 UV-I 30 W/m 14,6 C 15,2 C 4,8 km/h (1 Bft) 96,15 %
02.09.2016 06:56 15,2 C 96 % 1019,9 hPa 0,0 l/m 3,2 km/h (1 Bft) S 180 0 min 0,000 mm 0,0 UV-I 31 W/m 14,6 C 15,2 C 4,8 km/h (1 Bft) 97,44 %
02.09.2016 06:58 15,3 C 96 % 1019,9 hPa 0,0 l/m 3,8 km/h (1 Bft) S 180 0 min 0,000 mm 0,0 UV-I 32 W/m 14,7 C 15,3 C 4,8 km/h (1 Bft) 97,87 %
02.09.2016 07:00 15,3 C 96 % 1019,9 hPa 0,0 l/m 4,3 km/h (1 Bft) S 180 0 min 0,000 mm 0,0 UV-I 36 W/m 14,7 C 15,3 C 4,8 km/h (1 Bft) 96,00 %
02.09.2016 07:02 15,4 C 96 % 1020,0 hPa 0,0 l/m 3,0 km/h (1 Bft) S 180 0 min 0,000 mm 0,0 UV-I 39 W/m 14,8 C 15,4 C 4,8 km/h (1 Bft) 95,74 %
02.09.2016 07:04 15,4 C 96 % 1019,9 hPa 0,0 l/m 2,5 km/h (1 Bft) S 180 0 min 0,000 mm 0,0 UV-I 42 W/m 14,8 C 15,4 C 4,8 km/h (1 Bft) 98,00 %
02.09.2016 07:06 15,5 C 96 % 1020,0 hPa 0,0 l/m 1,5 km/h (1 Bft) S 180 0 min 0,000 mm 0,0 UV-I 44 W/m 14,9 C 15,5 C 3,2 km/h (1 Bft) 97,14 %
02.09.2016 07:08 15,6 C 96 % 1019,9 hPa 0,0 l/m 2,2 km/h (1 Bft) S 180 0 min 0,000 mm 0,0 UV-I 45 W/m 15,0 C 15,6 C 4,8 km/h (1 Bft) 98,00 %
02.09.2016 07:10 15,6 C 96 % 1020,0 hPa 0,0 l/m 2,9 km/h (1 Bft) S-SW 199 0 min 0,000 mm 0,0 UV-I 43 W/m 15,0 C 15,6 C 4,8 km/h (1 Bft) 98,00 %
02.09.2016 07:12 15,6 C 96 % 1020,0 hPa 0,0 l/m 3,8 km/h (1 Bft) S-SW 196 0 min 0,000 mm 0,0 UV-I 40 W/m 15,0 C 15,6 C 4,8 km/h (1 Bft) 94,34 %
02.09.2016 07:14 15,7 C 96 % 1020,0 hPa 0,2 l/m 3,1 km/h (1 Bft) S-SW 196 0 min 0,000 mm 0,0 UV-I 37 W/m 15,1 C 15,7 C 4,8 km/h (1 Bft) 95,74 %
02.09.2016 07:16 15,7 C 96 % 1020,0 hPa 0,0 l/m 3,4 km/h (1 Bft) S-SW 196 0 min 0,000 mm 0,0 UV-I 38 W/m 15,1 C 15,7 C 4,8 km/h (1 Bft) 100,00 %
02.09.2016 07:18 15,7 C 96 % 1020,1 hPa 0,0 l/m 3,7 km/h (1 Bft) S-SW 196 0 min 0,000 mm 0,0 UV-I 44 W/m 15,1 C 15,7 C 6,4 km/h (2 Bft) 100,00 %
02.09.2016 07:20 15,7 C 96 % 1020,0 hPa 0,0 l/m 2,6 km/h (1 Bft) S-SW 196 0 min 0,000 mm 0,0 UV-I 46 W/m 15,1 C 15,7 C 4,8 km/h (1 Bft) 100,00 %
02.09.2016 07:22 15,7 C 96 % 1019,9 hPa 0,0 l/m 2,6 km/h (1 Bft) S-SW 196 0 min 0,000 mm 0,0 UV-I 45 W/m 15,1 C 15,7 C 4,8 km/h (1 Bft) 98,00 %
02.09.2016 07:24 15,8 C 96 % 1020,0 hPa 0,0 l/m 2,4 km/h (1 Bft) S-SW 196 0 min 0,000 mm 0,0 UV-I 50 W/m 15,2 C 15,8 C 4,8 km/h (1 Bft) 97,56 %
02.09.2016 07:26 15,8 C 96 % 1020,0 hPa 0,0 l/m 2,9 km/h (1 Bft) S-SW 196 0 min 0,000 mm 0,0 UV-I 71 W/m 15,2 C 15,8 C 4,8 km/h (1 Bft) 100,00 %
02.09.2016 07:28 15,8 C 96 % 1020,0 hPa 0,0 l/m 2,5 km/h (1 Bft) S-SW 196 0 min 0,000 mm 0,0 UV-I 77 W/m 15,2 C 15,8 C 4,8 km/h (1 Bft) 100,00 %
02.09.2016 07:30 15,9 C 96 % 1020,0 hPa 0,0 l/m 4,4 km/h (1 Bft) S-SW 196 0 min 0,000 mm 0,0 UV-I 80 W/m 15,3 C 15,9 C 6,4 km/h (2 Bft) 97,44 %
02.09.2016 07:32 16,0 C 96 % 1020,1 hPa 0,0 l/m 5,6 km/h (1 Bft) S-SW 197 0 min 0,000 mm 0,0 UV-I 80 W/m 15,4 C 16,0 C 8,0 km/h (2 Bft) 100,00 %
02.09.2016 07:34 16,1 C 96 % 1020,1 hPa 0,0 l/m 6,4 km/h (2 Bft) S 184 0 min 0,000 mm 0,0 UV-I 83 W/m 15,5 C 16,1 C 9,7 km/h (2 Bft) 100,00 %
02.09.2016 07:36 16,2 C 96 % 1020,1 hPa 0,0 l/m 5,9 km/h (2 Bft) S-SW 194 0 min 0,000 mm 0,0 UV-I 91 W/m 15,6 C 16,2 C 8,0 km/h (2 Bft) 100,00 %
02.09.2016 07:38 16,2 C 96 % 1020,0 hPa 0,0 l/m 5,8 km/h (2 Bft) S-SW 201 0 min 0,000 mm 0,0 UV-I 100 W/m 15,6 C 16,2 C 8,0 km/h (2 Bft) 100,00 %
02.09.2016 07:40 16,3 C 95 % 1020,0 hPa 0,0 l/m 4,1 km/h (1 Bft) SW 231 0 min 0,000 mm 0,0 UV-I 111 W/m 15,5 C 16,3 C 6,4 km/h (2 Bft) 100,00 %
02.09.2016 07:42 16,4 C 95 % 1020,1 hPa 0,0 l/m 3,4 km/h (1 Bft) S-SW 211 2 min 0,000 mm 0,0 UV-I 119 W/m 15,6 C 16,4 C 4,8 km/h (1 Bft) 100,00 %
02.09.2016 07:44 16,4 C 95 % 1020,0 hPa 0,0 l/m 3,4 km/h (1 Bft) S-SW 200 2 min 0,000 mm 0,0 UV-I 125 W/m 15,6 C 16,4 C 4,8 km/h (1 Bft) 100,00 %
02.09.2016 07:46 16,4 C 95 % 1020,1 hPa 0,0 l/m 4,5 km/h (1 Bft) S-SW 195 2 min 0,000 mm 0,0 UV-I 131 W/m 15,6 C 16,4 C 8,0 km/h (2 Bft) 97,87 %
02.09.2016 07:48 16,6 C 95 % 1020,1 hPa 0,0 l/m 6,5 km/h (2 Bft) S-SW 200 2 min 0,000 mm 0,0 UV-I 133 W/m 15,8 C 16,6 C 9,7 km/h (2 Bft) 100,00 %
02.09.2016 07:50 16,6 C 94 % 1020,1 hPa 0,0 l/m 4,9 km/h (1 Bft) S-SW 194 2 min 0,000 mm 0,0 UV-I 141 W/m 15,6 C 16,6 C 6,4 km/h (2 Bft) 100,00 %
02.09.2016 07:52 16,6 C 94 % 1020,1 hPa 0,0 l/m 6,4 km/h (2 Bft) S 178 2 min 0,000 mm 0,0 UV-I 151 W/m 15,6 C 16,6 C 8,0 km/h (2 Bft) 98,11 %
02.09.2016 07:54 16,7 C 94 % 1020,1 hPa 0,0 l/m 7,7 km/h (2 Bft) SW 217 2 min 0,000 mm 0,0 UV-I 156 W/m 15,7 C 16,0 C 9,7 km/h (2 Bft) 100,00 %
02.09.2016 07:56 16,7 C 94 % 1020,1 hPa 0,0 l/m 5,9 km/h (2 Bft) S-SW 192 2 min 0,000 mm 0,0 UV-I 176 W/m 15,7 C 16,7 C 8,0 km/h (2 Bft) 100,00 %
02.09.2016 07:58 16,8 C 94 % 1020,1 hPa 0,0 l/m 4,6 km/h (1 Bft) S 188 2 min 0,000 mm 0,0 UV-I 193 W/m 15,8 C 16,8 C 8,0 km/h (2 Bft) 100,00 %
02.09.2016 08:00 16,9 C 94 % 1020,1 hPa 0,0 l/m 4,9 km/h (1 Bft) S 190 2 min 0,051 mm 0,0 UV-I 197 W/m 15,9 C 16,9 C 8,0 km/h (2 Bft) 97,87 %
02.09.2016 08:02 17,0 C 93 % 1020,1 hPa 0,0 l/m 4,9 km/h (1 Bft) S 173 2 min 0,000 mm 0,0 UV-I 194 W/m 15,9 C 17,0 C 9,7 km/h (2 Bft) 100,00 %
02.09.2016 08:04 17,1 C 93 % 1020,1 hPa 0,0 l/m 4,3 km/h (1 Bft) S 178 2 min 0,000 mm 0,0 UV-I 173 W/m 16,0 C 17,1 C 8,0 km/h (2 Bft) 100,00 %
02.09.2016 08:06 17,2 C 93 % 1020,0 hPa 0,0 l/m 4,2 km/h (1 Bft) S 174 0 min 0,000 mm 0,0 UV-I 150 W/m 16,1 C 17,2 C 8,0 km/h (2 Bft) 100,00 %
02.09.2016 08:08 17,2 C 93 % 1020,0 hPa 0,0 l/m 4,4 km/h (1 Bft) S-SW 198 0 min 0,000 mm 0,0 UV-I 111 W/m 16,1 C 17,2 C 6,4 km/h (2 Bft) 100,00 %
02.09.2016 08:10 17,2 C 92 % 1020,0 hPa 0,0 l/m 3,0 km/h (1 Bft) SW 217 0 min 0,000 mm 0,0 UV-I 133 W/m 15,9 C 17,2 C 6,4 km/h (2 Bft) 97,87 %
02.09.2016 08:12 17,3 C 93 % 1020,0 hPa 0,0 l/m 4,9 km/h (1 Bft) S-SW 196 2 min 0,000 mm 0,0 UV-I 196 W/m 16,2 C 17,3 C 8,0 km/h (2 Bft) 100,00 %
02.09.2016 08:14 17,4 C 93 % 1020,0 hPa 0,0 l/m 5,1 km/h (1 Bft) S-SW 194 2 min 0,000 mm 0,2 UV-I 193 W/m 16,3 C 17,4 C 8,0 km/h (2 Bft) 100,00 %
02.09.2016 08:16 17,4 C 92 % 1020,0 hPa 0,0 l/m 5,1 km/h (1 Bft) S-SW 192 2 min 0,000 mm 0,5 UV-I 182 W/m 16,1 C 17,4 C 9,7 km/h (2 Bft) 100,00 %
02.09.2016 08:18 17,4 C 92 % 1020,0 hPa 0,0 l/m 5,2 km/h (1 Bft) SW 217 2 min 0,000 mm 0,5 UV-I 173 W/m 16,1 C 17,4 C 8,0 km/h (2 Bft) 100,00 %
02.09.2016 08:20 17,4 C 92 % 1020,0 hPa 0,0 l/m 6,2 km/h (2 Bft) S 178 0 min 0,000 mm 0,5 UV-I 167 W/m 16,1 C 17,4 C 9,7 km/h (2 Bft) 98,11 %
02.09.2016 08:22 17,5 C 92 % 1020,0 hPa 0,0 l/m 6,4 km/h (2 Bft) S-SW 202 0 min 0,000 mm 0,5 UV-I 164 W/m 16,2 C 17,5 C 9,7 km/h (2 Bft) 100,00 %
02.09.2016 08:24 17,6 C 92 % 1019,9 hPa 0,0 l/m 4,4 km/h (1 Bft) S 186 0 min 0,000 mm 0,6 UV-I 166 W/m 16,3 C 17,6 C 9,7 km/h (2 Bft) 100,00 %
02.09.2016 08:26 17,6 C 92 % 1019,9 hPa 0,0 l/m 4,1 km/h (1 Bft) SW 223 0 min 0,000 mm 0,6 UV-I 168 W/m 16,3 C 17,6 C 6,4 km/h (2 Bft) 98,00 %
02.09.2016 08:28 17,6 C 92 % 1019,9 hPa 0,0 l/m 5,8 km/h (2 Bft) S 176 0 min 0,000 mm 0,6 UV-I 174 W/m 16,3 C 17,6 C 9,7 km/h (2 Bft) 100,00 %
02.09.2016 08:30 17,7 C 92 % 1019,9 hPa 0,0 l/m 4,1 km/h (1 Bft) S-SW 194 0 min 0,000 mm 0,6 UV-I 183 W/m 16,4 C 17,7 C 8,0 km/h (2 Bft) 100,00 %
02.09.2016 08:32 17,7 C 92 % 1019,9 hPa 0,0 l/m 4,1 km/h (1 Bft) SW 218 2 min 0,000 mm 0,6 UV-I 195 W/m 16,4 C 17,7 C 6,4 km/h (2 Bft) 100,00 %
02.09.2016 08:34 17,8 C 91 % 1019,9 hPa 0,0 l/m 4,2 km/h (1 Bft) S-SW 205 2 min 0,000 mm 0,7 UV-I 207 W/m 16,3 C 17,8 C 8,0 km/h (2 Bft) 100,00 %
02.09.2016 08:36 17,8 C 91 % 1020,0 hPa 0,0 l/m 6,3 km/h (2 Bft) SW 216 2 min 0,000 mm 0,7 UV-I 217 W/m 16,3 C 17,8 C 8,0 km/h (2 Bft) 100,00 %
02.09.2016 08:38 17,9 C 92 % 1020,0 hPa 0,0 l/m 5,0 km/h (1 Bft) S-SO 166 2 min 0,000 mm 0,7 UV-I 229 W/m 16,6 C 17,9 C 8,0 km/h (2 Bft) 100,00 %
02.09.2016 08:40 17,9 C 91 % 1020,0 hPa 0,0 l/m 4,8 km/h (1 Bft) SW 233 2 min 0,000 mm 0,8 UV-I 237 W/m 16,4 C 17,9 C 8,0 km/h (2 Bft) 97,87 %
02.09.2016 08:42 18,0 C 91 % 1019,9 hPa 0,0 l/m 4,3 km/h (1 Bft) S-SW 199 2 min 0,000 mm 0,8 UV-I 248 W/m 16,5 C 18,0 C 8,0 km/h (2 Bft) 100,00 %
02.09.2016 08:44 18,0 C 90 % 1020,0 hPa 0,0 l/m 6,1 km/h (2 Bft) SW 228 2 min 0,000 mm 0,8 UV-I 257 W/m 16,3 C 18,0 C 11,3 km/h (2 Bft) 97,44 %
02.09.2016 08:46 18,1 C 90 % 1020,0 hPa 0,0 l/m 6,0 km/h (2 Bft) SW 234 2 min 0,000 mm 0,8 UV-I 264 W/m 16,4 C 18,1 C 9,7 km/h (2 Bft) 96,72 %
02.09.2016 08:48 18,1 C 90 % 1020,0 hPa 0,0 l/m 4,9 km/h (1 Bft) SW 221 2 min 0,000 mm 0,9 UV-I 272 W/m 16,4 C 18,1 C 6,4 km/h (2 Bft) 98,00 %
02.09.2016 08:50 18,2 C 90 % 1019,9 hPa 0,0 l/m 4,0 km/h (1 Bft) S 183 2 min 0,000 mm 0,9 UV-I 280 W/m 16,5 C 18,2 C 6,4 km/h (2 Bft) 97,56 %
02.09.2016 08:52 18,2 C 90 % 1019,9 hPa 0,0 l/m 4,8 km/h (1 Bft) W-SW 240 2 min 0,000 mm 0,9 UV-I 291 W/m 16,5 C 18,2 C 8,0 km/h (2 Bft) 97,87 %
02.09.2016 08:54 18,3 C 90 % 1020,0 hPa 0,0 l/m 5,6 km/h (1 Bft) W-SW 240 2 min 0,000 mm 1,0 UV-I 295 W/m 16,6 C 18,3 C 11,3 km/h (2 Bft) 97,92 %
02.09.2016 08:56 18,6 C 90 % 1020,0 hPa 0,0 l/m 4,6 km/h (1 Bft) W 270 2 min 0,000 mm 1,0 UV-I 298 W/m 16,9 C 18,6 C 6,4 km/h (2 Bft) 95,74 %
02.09.2016 08:58 18,7 C 90 % 1020,0 hPa 0,0 l/m 4,1 km/h (1 Bft) W-SW 257 2 min 0,000 mm 1,0 UV-I 300 W/m 17,0 C 18,7 C 6,4 km/h (2 Bft) 96,00 %
02.09.2016 09:00 18,9 C 88 % 1020,1 hPa 0,0 l/m 2,2 km/h (1 Bft) W-SW 257 2 min 0,127 mm 1,0 UV-I 306 W/m 16,9 C 18,9 C 4,8 km/h (1 Bft) 97,87 %
02.09.2016 09:02 19,0 C 88 % 1020,1 hPa 0,0 l/m 2,7 km/h (1 Bft) W-SW 257 2 min 0,000 mm 1,1 UV-I 308 W/m 17,0 C 19,0 C 4,8 km/h (1 Bft) 97,37 %
02.09.2016 09:04 19,2 C 87 % 1020,1 hPa 0,0 l/m 1,3 km/h (1 Bft) W-SW 257 2 min 0,000 mm 1,1 UV-I 322 W/m 17,0 C 19,2 C 3,2 km/h (1 Bft) 96,43 %
02.09.2016 09:06 19,2 C 88 % 1020,1 hPa 0,0 l/m 3,5 km/h (1 Bft) W 273 2 min 0,000 mm 1,1 UV-I 333 W/m 17,2 C 19,2 C 6,4 km/h (2 Bft) 97,14 %
02.09.2016 09:08 19,3 C 87 % 1020,1 hPa 0,0 l/m 2,9 km/h (1 Bft) SW 217 2 min 0,000 mm 1,2 UV-I 327 W/m 17,1 C 19,3 C 4,8 km/h (1 Bft) 94,64 %
02.09.2016 09:10 19,3 C 85 % 1020,2 hPa 0,0 l/m 3,9 km/h (1 Bft) W-SW 251 2 min 0,000 mm 1,2 UV-I 345 W/m 16,7 C 19,3 C 4,8 km/h (1 Bft) 98,00 %
02.09.2016 09:12 19,3 C 85 % 1020,2 hPa 0,0 l/m 4,4 km/h (1 Bft) SW 235 2 min 0,000 mm 1,2 UV-I 357 W/m 16,7 C 19,3 C 9,7 km/h (2 Bft) 95,74 %
02.09.2016 09:14 19,3 C 85 % 1020,2 hPa 0,0 l/m 5,6 km/h (1 Bft) W-SW 246 2 min 0,000 mm 1,2 UV-I 326 W/m 16,7 C 19,3 C 8,0 km/h (2 Bft) 95,74 %
02.09.2016 09:16 19,3 C 85 % 1020,2 hPa 0,0 l/m 4,0 km/h (1 Bft) SW 233 2 min 0,000 mm 1,3 UV-I 260 W/m 16,7 C 19,3 C 6,4 km/h (2 Bft) 96,88 %
02.09.2016 09:18 19,4 C 86 % 1020,3 hPa 0,0 l/m 2,8 km/h (1 Bft) W-SW 254 2 min 0,000 mm 1,3 UV-I 358 W/m 17,0 C 19,4 C 4,8 km/h (1 Bft) 98,00 %
02.09.2016 09:20 19,5 C 85 % 1020,3 hPa 0,0 l/m 5,3 km/h (1 Bft) W 276 2 min 0,000 mm 1,3 UV-I 396 W/m 16,9 C 19,5 C 8,0 km/h (2 Bft) 98,11 %
02.09.2016 09:22 19,6 C 85 % 1020,3 hPa 0,0 l/m 6,2 km/h (2 Bft) W-SW 242 2 min 0,000 mm 1,4 UV-I 403 W/m 17,0 C 19,6 C 11,3 km/h (2 Bft) 100,00 %
02.09.2016 09:24 19,7 C 83 % 1020,3 hPa 0,0 l/m 7,2 km/h (2 Bft) W-SW 252 2 min 0,000 mm 1,4 UV-I 407 W/m 16,7 C 19,4 C 11,3 km/h (2 Bft) 98,00 %
02.09.2016 09:26 19,8 C 83 % 1020,3 hPa 0,0 l/m 5,8 km/h (2 Bft) SW 232 2 min 0,000 mm 1,5 UV-I 410 W/m 16,8 C 19,8 C 8,0 km/h (2 Bft) 98,00 %
02.09.2016 09:28 19,8 C 84 % 1020,2 hPa 0,0 l/m 4,7 km/h (1 Bft) W 281 2 min 0,000 mm 1,5 UV-I 405 W/m 17,0 C 19,8 C 6,4 km/h (2 Bft) 100,00 %
02.09.2016 09:30 19,9 C 83 % 1020,2 hPa 0,0 l/m 4,0 km/h (1 Bft) W 261 2 min 0,000 mm 1,6 UV-I 408 W/m 16,9 C 19,9 C 6,4 km/h (2 Bft) 100,00 %
02.09.2016 09:32 20,1 C 83 % 1020,3 hPa 0,0 l/m 2,6 km/h (1 Bft) W 261 2 min 0,000 mm 1,6 UV-I 411 W/m 17,1 C 20,1 C 4,8 km/h (1 Bft) 100,00 %
02.09.2016 09:34 20,1 C 82 % 1020,3 hPa 0,0 l/m 6,1 km/h (2 Bft) W-SW 255 2 min 0,000 mm 1,6 UV-I 410 W/m 16,9 C 20,1 C 11,3 km/h (2 Bft) 100,00 %
02.09.2016 09:36 20,1 C 80 % 1020,3 hPa 0,0 l/m 5,9 km/h (2 Bft) W-SW 251 2 min 0,000 mm 1,7 UV-I 413 W/m 16,5 C 20,1 C 8,0 km/h (2 Bft) 100,00 %
02.09.2016 09:38 20,1 C 82 % 1020,3 hPa 0,0 l/m 6,7 km/h (2 Bft) SW 234 2 min 0,000 mm 1,7 UV-I 421 W/m 16,9 C 20,0 C 11,3 km/h (2 Bft) 100,00 %
02.09.2016 09:40 20,2 C 80 % 1020,3 hPa 0,0 l/m 5,5 km/h (1 Bft) SW 227 2 min 0,000 mm 1,7 UV-I 429 W/m 16,6 C 20,2 C 8,0 km/h (2 Bft) 97,87 %
02.09.2016 09:42 20,1 C 80 % 1020,3 hPa 0,0 l/m 5,2 km/h (1 Bft) W-SW 243 2 min 0,000 mm 1,8 UV-I 432 W/m 16,5 C 20,1 C 11,3 km/h (2 Bft) 100,00 %
02.09.2016 09:44 20,2 C 82 % 1020,3 hPa 0,0 l/m 5,8 km/h (2 Bft) W-SW 239 2 min 0,000 mm 1,8 UV-I 442 W/m 17,0 C 20,2 C 8,0 km/h (2 Bft) 100,00 %
02.09.2016 09:46 20,3 C 82 % 1020,4 hPa 0,0 l/m 4,5 km/h (1 Bft) W-SW 241 2 min 0,000 mm 1,9 UV-I 446 W/m 17,1 C 20,3 C 8,0 km/h (2 Bft) 100,00 %
02.09.2016 09:48 20,3 C 81 % 1020,3 hPa 0,0 l/m 8,2 km/h (2 Bft) W 261 2 min 0,000 mm 1,9 UV-I 450 W/m 16,9 C 19,6 C 12,9 km/h (3 Bft) 100,00 %
02.09.2016 09:50 20,4 C 81 % 1020,3 hPa 0,0 l/m 7,2 km/h (2 Bft) W 269 2 min 0,000 mm 1,9 UV-I 452 W/m 17,0 C 20,1 C 12,9 km/h (3 Bft) 100,00 %
02.09.2016 09:52 20,6 C 80 % 1020,4 hPa 0,0 l/m 6,9 km/h (2 Bft) SW 232 2 min 0,000 mm 2,0 UV-I 457 W/m 17,0 C 20,4 C 9,7 km/h (2 Bft) 100,00 %
02.09.2016 09:54 20,6 C 79 % 1020,4 hPa 0,0 l/m 7,8 km/h (2 Bft) SW 231 2 min 0,000 mm 2,0 UV-I 465 W/m 16,8 C 20,1 C 11,3 km/h (2 Bft) 100,00 %
02.09.2016 09:56 20,6 C 78 % 1020,4 hPa 0,0 l/m 5,9 km/h (2 Bft) S-SO 165 2 min 0,000 mm 2,0 UV-I 468 W/m 16,6 C 20,6 C 9,7 km/h (2 Bft) 100,00 %
02.09.2016 09:58 20,6 C 79 % 1020,3 hPa 0,0 l/m 6,5 km/h (2 Bft) SW 223 2 min 0,000 mm 2,1 UV-I 472 W/m 16,8 C 20,6 C 9,7 km/h (2 Bft) 100,00 %
02.09.2016 10:00 20,6 C 79 % 1020,4 hPa 0,0 l/m 5,2 km/h (1 Bft) SW 236 2 min 0,254 mm 2,1 UV-I 479 W/m 16,8 C 20,6 C 8,0 km/h (2 Bft) 98,00 %
02.09.2016 10:02 20,8 C 79 % 1020,4 hPa 0,0 l/m 7,0 km/h (2 Bft) SW 231 2 min 0,000 mm 2,1 UV-I 480 W/m 17,0 C 20,6 C 12,9 km/h (3 Bft) 100,00 %
02.09.2016 10:04 20,9 C 79 % 1020,4 hPa 0,0 l/m 5,9 km/h (2 Bft) W-SW 255 2 min 0,000 mm 2,2 UV-I 483 W/m 17,1 C 20,9 C 9,7 km/h (2 Bft) 98,00 %
02.09.2016 10:06 20,9 C 77 % 1020,4 hPa 0,0 l/m 6,0 km/h (2 Bft) W 259 2 min 0,000 mm 2,2 UV-I 489 W/m 16,7 C 20,9 C 9,7 km/h (2 Bft) 100,00 %
02.09.2016 10:08 20,8 C 76 % 1020,4 hPa 0,0 l/m 4,3 km/h (1 Bft) W 271 2 min 0,000 mm 2,3 UV-I 493 W/m 16,4 C 20,8 C 9,7 km/h (2 Bft) 98,11 %
02.09.2016 10:10 20,9 C 76 % 1020,4 hPa 0,0 l/m 4,6 km/h (1 Bft) S-SW 196 2 min 0,000 mm 2,3 UV-I 498 W/m 16,5 C 20,9 C 8,0 km/h (2 Bft) 100,00 %
02.09.2016 10:12 20,9 C 76 % 1020,4 hPa 0,0 l/m 4,4 km/h (1 Bft) W-SW 257 2 min 0,000 mm 2,4 UV-I 502 W/m 16,5 C 20,9 C 8,0 km/h (2 Bft) 100,00 %
02.09.2016 10:14 20,9 C 75 % 1020,3 hPa 0,0 l/m 6,0 km/h (2 Bft) W-SW 244 2 min 0,000 mm 2,4 UV-I 504 W/m 16,3 C 20,9 C 12,9 km/h (3 Bft) 100,00 %
02.09.2016 10:16 21,0 C 75 % 1020,3 hPa 0,0 l/m 7,0 km/h (2 Bft) S-SW 201 2 min 0,000 mm 2,4 UV-I 504 W/m 16,4 C 20,8 C 12,9 km/h (3 Bft) 98,11 %
02.09.2016 10:18 20,9 C 77 % 1020,3 hPa 0,0 l/m 5,2 km/h (1 Bft) W-SW 242 2 min 0,000 mm 2,4 UV-I 513 W/m 16,7 C 20,9 C 8,0 km/h (2 Bft) 100,00 %
02.09.2016 10:20 21,1 C 76 % 1020,3 hPa 0,0 l/m 5,7 km/h (1 Bft) W-SW 246 2 min 0,000 mm 2,5 UV-I 518 W/m 16,7 C 21,1 C 11,3 km/h (2 Bft) 100,00 %
02.09.2016 10:22 21,1 C 75 % 1020,3 hPa 0,0 l/m 9,0 km/h (2 Bft) W-SW 247 2 min 0,000 mm 2,5 UV-I 523 W/m 16,5 C 20,2 C 14,5 km/h (3 Bft) 100,00 %
02.09.2016 10:24 21,2 C 76 % 1020,3 hPa 0,0 l/m 7,5 km/h (2 Bft) W-SW 250 2 min 0,000 mm 2,6 UV-I 529 W/m 16,8 C 20,8 C 14,5 km/h (3 Bft) 98,00 %
02.09.2016 10:26 21,2 C 77 % 1020,3 hPa 0,0 l/m 5,1 km/h (1 Bft) W 270 2 min 0,000 mm 2,6 UV-I 535 W/m 17,0 C 21,2 C 9,7 km/h (2 Bft) 97,87 %
02.09.2016 10:28 21,2 C 75 % 1020,3 hPa 0,0 l/m 5,5 km/h (1 Bft) SW 234 2 min 0,000 mm 2,7 UV-I 543 W/m 16,6 C 21,2 C 11,3 km/h (2 Bft) 100,00 %
02.09.2016 10:30 21,2 C 75 % 1020,3 hPa 0,0 l/m 4,9 km/h (1 Bft) S 172 2 min 0,000 mm 2,7 UV-I 548 W/m 16,6 C 21,2 C 12,9 km/h (3 Bft) 100,00 %
02.09.2016 10:32 21,3 C 76 % 1020,3 hPa 0,0 l/m 5,4 km/h (1 Bft) W-NW 284 2 min 0,000 mm 2,8 UV-I 555 W/m 16,9 C 21,3 C 8,0 km/h (2 Bft) 97,87 %
02.09.2016 10:34 21,6 C 76 % 1020,3 hPa 0,0 l/m 3,8 km/h (1 Bft) W 273 2 min 0,000 mm 2,8 UV-I 561 W/m 17,2 C 21,6 C 6,4 km/h (2 Bft) 100,00 %
02.09.2016 10:36 21,6 C 73 % 1020,2 hPa 0,0 l/m 5,6 km/h (1 Bft) W 270 2 min 0,000 mm 2,9 UV-I 566 W/m 16,5 C 21,6 C 11,3 km/h (2 Bft) 100,00 %
02.09.2016 10:38 21,5 C 72 % 1020,2 hPa 0,0 l/m 4,0 km/h (1 Bft) W 275 2 min 0,000 mm 2,9 UV-I 564 W/m 16,2 C 21,5 C 9,7 km/h (2 Bft) 100,00 %
02.09.2016 10:40 21,5 C 75 % 1020,2 hPa 0,0 l/m 4,0 km/h (1 Bft) W-SW 254 2 min 0,000 mm 3,0 UV-I 565 W/m 16,9 C 21,5 C 8,0 km/h (2 Bft) 95,74 %
02.09.2016 10:42 21,6 C 74 % 1020,1 hPa 0,0 l/m 5,7 km/h (1 Bft) W 265 2 min 0,000 mm 3,0 UV-I 570 W/m 16,8 C 21,6 C 9,7 km/h (2 Bft) 97,87 %
02.09.2016 10:44 21,7 C 74 % 1020,2 hPa 0,0 l/m 5,5 km/h (1 Bft) W-SW 247 2 min 0,000 mm 3,1 UV-I 577 W/m 16,9 C 21,7 C 11,3 km/h (2 Bft) 95,74 %
02.09.2016 10:46 21,8 C 73 % 1020,2 hPa 0,0 l/m 3,4 km/h (1 Bft) W-SW 253 2 min 0,000 mm 3,1 UV-I 580 W/m 16,7 C 21,8 C 6,4 km/h (2 Bft) 100,00 %
02.09.2016 10:48 21,8 C 76 % 1020,2 hPa 0,0 l/m 2,5 km/h (1 Bft) SW 232 2 min 0,000 mm 3,1 UV-I 583 W/m 17,4 C 21,8 C 4,8 km/h (1 Bft) 96,49 %
02.09.2016 10:50 21,9 C 73 % 1020,3 hPa 0,0 l/m 4,8 km/h (1 Bft) W-SW 249 2 min 0,000 mm 3,2 UV-I 586 W/m 16,8 C 21,9 C 9,7 km/h (2 Bft) 97,62 %
02.09.2016 10:52 21,9 C 72 % 1020,2 hPa 0,0 l/m 3,8 km/h (1 Bft) W 279 2 min 0,000 mm 3,2 UV-I 586 W/m 16,6 C 21,9 C 8,0 km/h (2 Bft) 98,11 %
02.09.2016 10:54 22,1 C 73 % 1020,2 hPa 0,0 l/m 5,9 km/h (2 Bft) W-NW 292 2 min 0,000 mm 3,3 UV-I 605 W/m 17,0 C 22,1 C 11,3 km/h (2 Bft) 97,37 %
02.09.2016 10:56 22,1 C 72 % 1020,2 hPa 0,0 l/m 6,0 km/h (2 Bft) W-SW 258 2 min 0,000 mm 3,3 UV-I 606 W/m 16,8 C 22,1 C 11,3 km/h (2 Bft) 98,00 %
02.09.2016 10:58 22,1 C 71 % 1020,2 hPa 0,0 l/m 7,2 km/h (2 Bft) SW 225 2 min 0,000 mm 3,3 UV-I 589 W/m 16,6 C 21,8 C 11,3 km/h (2 Bft) 97,87 %
02.09.2016 11:00 22,2 C 71 % 1020,2 hPa 0,0 l/m 3,7 km/h (1 Bft) W-SW 237 2 min 0,330 mm 3,2 UV-I 553 W/m 16,7 C 22,2 C 6,4 km/h (2 Bft) 97,73 %
02.09.2016 11:02 22,2 C 72 % 1020,2 hPa 0,0 l/m 4,8 km/h (1 Bft) W 277 2 min 0,000 mm 3,3 UV-I 571 W/m 16,9 C 22,2 C 11,3 km/h (2 Bft) 96,00 %
02.09.2016 11:04 22,2 C 71 % 1020,2 hPa 0,0 l/m 1,8 km/h (1 Bft) W-NW 293 2 min 0,000 mm 3,3 UV-I 585 W/m 16,7 C 22,2 C 3,2 km/h (1 Bft) 98,00 %
02.09.2016 11:06 22,2 C 72 % 1020,2 hPa 0,0 l/m 4,4 km/h (1 Bft) W 272 2 min 0,000 mm 3,3 UV-I 581 W/m 16,9 C 22,2 C 8,0 km/h (2 Bft) 97,56 %
02.09.2016 11:08 22,2 C 71 % 1020,1 hPa 0,0 l/m 4,6 km/h (1 Bft) W-SW 248 2 min 0,000 mm 3,4 UV-I 583 W/m 16,7 C 22,2 C 11,3 km/h (2 Bft) 97,87 %
02.09.2016 11:10 22,5 C 71 % 1020,2 hPa 0,0 l/m 8,2 km/h (2 Bft) W 267 2 min 0,000 mm 3,5 UV-I 613 W/m 17,0 C 21,9 C 12,9 km/h (3 Bft) 98,00 %
02.09.2016 11:12 22,5 C 69 % 1020,2 hPa 0,0 l/m 9,0 km/h (2 Bft) W 275 2 min 0,000 mm 3,5 UV-I 601 W/m 16,5 C 21,7 C 12,9 km/h (3 Bft) 96,23 %
02.09.2016 11:14 22,6 C 69 % 1020,2 hPa 0,0 l/m 6,4 km/h (2 Bft) SW 227 2 min 0,000 mm 3,6 UV-I 618 W/m 16,6 C 22,6 C 11,3 km/h (2 Bft) 97,37 %
02.09.2016 11:16 22,6 C 68 % 1020,2 hPa 0,0 l/m 5,6 km/h (1 Bft) SW 216 2 min 0,000 mm 3,6 UV-I 627 W/m 16,4 C 22,6 C 9,7 km/h (2 Bft) 100,00 %
02.09.2016 11:18 22,6 C 71 % 1020,1 hPa 0,0 l/m 3,8 km/h (1 Bft) S-SW 192 2 min 0,000 mm 3,7 UV-I 641 W/m 17,1 C 22,6 C 6,4 km/h (2 Bft) 98,00 %
02.09.2016 11:20 22,8 C 70 % 1020,1 hPa 0,0 l/m 6,5 km/h (2 Bft) SW 236 2 min 0,000 mm 3,7 UV-I 623 W/m 17,0 C 22,8 C 11,3 km/h (2 Bft) 100,00 %
02.09.2016 11:22 22,8 C 70 % 1020,1 hPa 0,0 l/m 6,3 km/h (2 Bft) SW 221 2 min 0,000 mm 3,7 UV-I 617 W/m 17,0 C 22,8 C 9,7 km/h (2 Bft) 100,00 %
02.09.2016 11:24 22,8 C 69 % 1020,1 hPa 0,0 l/m 7,3 km/h (2 Bft) S-SW 202 2 min 0,000 mm 3,8 UV-I 631 W/m 16,8 C 22,5 C 12,9 km/h (3 Bft) 100,00 %
02.09.2016 11:26 22,9 C 69 % 1020,0 hPa 0,0 l/m 2,6 km/h (1 Bft) SW 233 2 min 0,000 mm 3,8 UV-I 633 W/m 16,9 C 22,9 C 6,4 km/h (2 Bft) 100,00 %
02.09.2016 11:28 23,2 C 67 % 1020,0 hPa 0,0 l/m 9,8 km/h (2 Bft) W-SW 240 2 min 0,000 mm 3,9 UV-I 653 W/m 16,7 C 22,2 C 16,1 km/h (3 Bft) 100,00 %
02.09.2016 11:30 23,1 C 63 % 1020,1 hPa 0,0 l/m 9,3 km/h (2 Bft) W 280 2 min 0,000 mm 3,8 UV-I 621 W/m 15,7 C 22,2 C 16,1 km/h (3 Bft) 97,56 %
02.09.2016 11:32 23,1 C 65 % 1020,1 hPa 0,0 l/m 9,0 km/h (2 Bft) W-SW 256 2 min 0,000 mm 3,8 UV-I 637 W/m 16,2 C 22,3 C 14,5 km/h (3 Bft) 100,00 %
02.09.2016 11:34 23,0 C 66 % 1020,0 hPa 0,0 l/m 5,4 km/h (1 Bft) SW 228 2 min 0,000 mm 3,9 UV-I 626 W/m 16,3 C 23,0 C 9,7 km/h (2 Bft) 100,00 %
02.09.2016 11:36 23,1 C 66 % 1020,0 hPa 0,0 l/m 4,5 km/h (1 Bft) SW 218 2 min 0,000 mm 3,8 UV-I 602 W/m 16,4 C 23,1 C 6,4 km/h (2 Bft) 97,87 %
02.09.2016 11:38 23,2 C 65 % 1020,0 hPa 0,0 l/m 3,8 km/h (1 Bft) S-SW 194 2 min 0,000 mm 3,9 UV-I 620 W/m 16,2 C 23,2 C 6,4 km/h (2 Bft) 95,74 %
02.09.2016 11:40 23,4 C 67 % 1020,0 hPa 0,0 l/m 7,6 km/h (2 Bft) SW 229 2 min 0,000 mm 4,0 UV-I 631 W/m 16,9 C 23,0 C 14,5 km/h (3 Bft) 97,56 %
02.09.2016 11:42 23,3 C 66 % 1020,0 hPa 0,0 l/m 8,8 km/h (2 Bft) W-SW 242 2 min 0,000 mm 4,1 UV-I 680 W/m 16,6 C 22,6 C 12,9 km/h (3 Bft) 97,37 %
02.09.2016 11:44 23,4 C 67 % 1020,0 hPa 0,0 l/m 7,2 km/h (2 Bft) S 169 2 min 0,000 mm 4,2 UV-I 686 W/m 16,9 C 23,2 C 11,3 km/h (2 Bft) 100,00 %
02.09.2016 11:46 23,3 C 66 % 1020,0 hPa 0,0 l/m 6,9 km/h (2 Bft) SW 227 2 min 0,000 mm 4,2 UV-I 695 W/m 16,6 C 23,1 C 11,3 km/h (2 Bft) 100,00 %
02.09.2016 11:48 23,2 C 65 % 1019,9 hPa 0,0 l/m 2,7 km/h (1 Bft) W-SW 258 2 min 0,000 mm 4,3 UV-I 706 W/m 16,2 C 23,2 C 8,0 km/h (2 Bft) 100,00 %
02.09.2016 11:50 23,2 C 67 % 1019,9 hPa 0,0 l/m 6,5 km/h (2 Bft) S-SW 211 2 min 0,000 mm 4,4 UV-I 714 W/m 16,7 C 23,2 C 11,3 km/h (2 Bft) 95,45 %
02.09.2016 11:52 23,4 C 64 % 1019,8 hPa 0,0 l/m 7,0 km/h (2 Bft) W-SW 240 2 min 0,000 mm 4,3 UV-I 707 W/m 16,2 C 23,2 C 12,9 km/h (3 Bft) 100,00 %
02.09.2016 11:54 23,4 C 65 % 1019,8 hPa 0,0 l/m 4,0 km/h (1 Bft) W 276 2 min 0,000 mm 4,3 UV-I 687 W/m 16,4 C 23,4 C 6,4 km/h (2 Bft) 100,00 %
02.09.2016 11:56 23,6 C 65 % 1019,8 hPa 0,0 l/m 4,6 km/h (1 Bft) W-SW 243 2 min 0,000 mm 4,3 UV-I 684 W/m 16,6 C 23,6 C 8,0 km/h (2 Bft) 100,00 %
02.09.2016 11:58 23,8 C 65 % 1019,8 hPa 0,0 l/m 4,4 km/h (1 Bft) W 260 2 min 0,000 mm 4,4 UV-I 703 W/m 16,8 C 23,8 C 8,0 km/h (2 Bft) 100,00 %
02.09.2016 12:00 23,7 C 63 % 1019,8 hPa 0,0 l/m 3,6 km/h (1 Bft) W 269 2 min 0,406 mm 4,4 UV-I 696 W/m 16,2 C 23,7 C 6,4 km/h (2 Bft) 97,56 %
02.09.2016 12:02 23,9 C 66 % 1019,7 hPa 0,0 l/m 7,7 km/h (2 Bft) W-SW 241 2 min 0,000 mm 4,4 UV-I 694 W/m 17,1 C 23,5 C 12,9 km/h (3 Bft) 100,00 %
02.09.2016 12:04 24,1 C 61 % 1019,7 hPa 0,0 l/m 3,5 km/h (1 Bft) SW 233 2 min 0,000 mm 4,4 UV-I 685 W/m 16,1 C 24,1 C 11,3 km/h (2 Bft) 96,00 %
02.09.2016 12:06 24,1 C 65 % 1019,8 hPa 0,0 l/m 6,3 km/h (2 Bft) S 173 2 min 0,000 mm 4,3 UV-I 646 W/m 17,1 C 24,1 C 12,9 km/h (3 Bft) 100,00 %
02.09.2016 12:08 23,9 C 64 % 1019,7 hPa 0,0 l/m 7,1 km/h (2 Bft) W-SW 253 2 min 0,000 mm 4,3 UV-I 675 W/m 16,7 C 23,7 C 14,5 km/h (3 Bft) 100,00 %
02.09.2016 12:10 23,9 C 64 % 1019,7 hPa 0,0 l/m 1,9 km/h (1 Bft) W-SW 252 2 min 0,000 mm 4,4 UV-I 694 W/m 16,7 C 23,9 C 4,8 km/h (1 Bft) 100,00 %
02.09.2016 12:12 24,0 C 63 % 1019,6 hPa 0,0 l/m 7,7 km/h (2 Bft) S-SO 148 2 min 0,000 mm 4,6 UV-I 717 W/m 16,5 C 23,6 C 16,1 km/h (3 Bft) 100,00 %
02.09.2016 12:14 24,1 C 62 % 1019,6 hPa 0,0 l/m 7,1 km/h (2 Bft) W-SW 247 2 min 0,000 mm 4,6 UV-I 729 W/m 16,4 C 23,9 C 12,9 km/h (3 Bft) 98,21 %
02.09.2016 12:16 24,0 C 60 % 1019,6 hPa 0,0 l/m 6,4 km/h (2 Bft) W 273 2 min 0,000 mm 4,6 UV-I 716 W/m 15,7 C 24,0 C 14,5 km/h (3 Bft) 100,00 %
02.09.2016 12:18 24,0 C 63 % 1019,6 hPa 0,0 l/m 5,2 km/h (1 Bft) S 188 2 min 0,000 mm 4,6 UV-I 724 W/m 16,5 C 24,0 C 8,0 km/h (2 Bft) 97,37 %
02.09.2016 12:20 24,2 C 63 % 1019,5 hPa 0,0 l/m 4,6 km/h (1 Bft) S-SW 199 2 min 0,000 mm 4,6 UV-I 732 W/m 16,7 C 24,2 C 8,0 km/h (2 Bft) 100,00 %
02.09.2016 12:22 24,4 C 63 % 1019,6 hPa 0,0 l/m 6,2 km/h (2 Bft) S-SO 165 2 min 0,000 mm 4,3 UV-I 642 W/m 16,9 C 24,4 C 12,9 km/h (3 Bft) 100,00 %
02.09.2016 12:24 24,4 C 63 % 1019,6 hPa 0,0 l/m 4,7 km/h (1 Bft) W-SW 255 2 min 0,000 mm 4,5 UV-I 699 W/m 16,9 C 24,4 C 9,7 km/h (2 Bft) 95,65 %
02.09.2016 12:26 24,4 C 63 % 1019,6 hPa 0,0 l/m 5,3 km/h (1 Bft) W-SW 257 2 min 0,000 mm 4,5 UV-I 708 W/m 16,9 C 24,4 C 8,0 km/h (2 Bft) 100,00 %
02.09.2016 12:28 24,4 C 62 % 1019,6 hPa 0,0 l/m 8,9 km/h (2 Bft) W-SW 244 2 min 0,000 mm 4,5 UV-I 708 W/m 16,6 C 23,7 C 17,7 km/h (3 Bft) 100,00 %
02.09.2016 12:30 24,3 C 59 % 1019,5 hPa 0,0 l/m 4,8 km/h (1 Bft) W-SW 252 2 min 0,000 mm 4,6 UV-I 711 W/m 15,8 C 24,3 C 11,3 km/h (2 Bft) 100,00 %
02.09.2016 12:32 24,3 C 61 % 1019,5 hPa 0,0 l/m 5,7 km/h (1 Bft) SW 236 2 min 0,000 mm 4,3 UV-I 658 W/m 16,3 C 24,3 C 8,0 km/h (2 Bft) 97,73 %
02.09.2016 12:34 24,5 C 57 % 1019,5 hPa 0,0 l/m 10,9 km/h (2 Bft) W-SW 237 2 min 0,000 mm 4,2 UV-I 667 W/m 15,4 C 23,4 C 16,1 km/h (3 Bft) 96,23 %
02.09.2016 12:36 24,7 C 58 % 1019,6 hPa 0,0 l/m 5,8 km/h (2 Bft) W-SW 241 2 min 0,000 mm 4,2 UV-I 655 W/m 15,9 C 24,7 C 9,7 km/h (2 Bft) 97,87 %
02.09.2016 12:38 24,7 C 55 % 1019,5 hPa 0,0 l/m 3,9 km/h (1 Bft) W-NW 283 2 min 0,000 mm 4,0 UV-I 642 W/m 15,0 C 24,7 C 6,4 km/h (2 Bft) 97,37 %
02.09.2016 12:40 24,5 C 56 % 1019,4 hPa 0,0 l/m 5,0 km/h (1 Bft) W-NW 285 2 min 0,000 mm 4,0 UV-I 653 W/m 15,1 C 24,5 C 11,3 km/h (2 Bft) 97,44 %
02.09.2016 12:42 24,6 C 57 % 1019,5 hPa 0,0 l/m 4,7 km/h (1 Bft) N-NO 12 2 min 0,000 mm 4,1 UV-I 692 W/m 15,5 C 24,6 C 11,3 km/h (2 Bft) 96,36 %
02.09.2016 12:44 24,5 C 60 % 1019,4 hPa 0,0 l/m 3,9 km/h (1 Bft) W-NW 286 2 min 0,000 mm 4,0 UV-I 714 W/m 16,2 C 24,5 C 6,4 km/h (2 Bft) 96,23 %
02.09.2016 12:46 24,5 C 57 % 1019,5 hPa 0,0 l/m 4,9 km/h (1 Bft) W-NW 296 2 min 0,000 mm 3,6 UV-I 682 W/m 15,4 C 24,5 C 12,9 km/h (3 Bft) 100,00 %
02.09.2016 12:48 24,4 C 58 % 1019,4 hPa 0,0 l/m 2,3 km/h (1 Bft) W-NW 291 2 min 0,000 mm 2,6 UV-I 534 W/m 15,6 C 24,4 C 6,4 km/h (2 Bft) 95,74 %
02.09.2016 12:50 24,3 C 57 % 1019,4 hPa 0,0 l/m 3,4 km/h (1 Bft) SW 236 0 min 0,000 mm 2,5 UV-I 256 W/m 15,2 C 24,3 C 4,8 km/h (1 Bft) 97,87 %
02.09.2016 12:52 24,2 C 57 % 1019,4 hPa 0,0 l/m 3,8 km/h (1 Bft) W-NW 297 0 min 0,000 mm 2,9 UV-I 267 W/m 15,1 C 24,2 C 6,4 km/h (2 Bft) 96,00 %
02.09.2016 12:54 24,2 C 58 % 1019,4 hPa 0,0 l/m 3,4 km/h (1 Bft) W-SW 256 0 min 0,000 mm 2,7 UV-I 244 W/m 15,4 C 24,2 C 9,7 km/h (2 Bft) 98,00 %
02.09.2016 12:56 24,2 C 57 % 1019,3 hPa 0,0 l/m 1,3 km/h (1 Bft) W 261 0 min 0,000 mm 2,7 UV-I 226 W/m 15,1 C 24,2 C 3,2 km/h (1 Bft) 97,87 %
02.09.2016 12:58 24,1 C 55 % 1019,4 hPa 0,0 l/m 2,3 km/h (1 Bft) NW 323 0 min 0,000 mm 3,0 UV-I 243 W/m 14,5 C 24,1 C 4,8 km/h (1 Bft) 96,00 %
02.09.2016 13:00 24,1 C 56 % 1019,3 hPa 0,0 l/m 4,0 km/h (1 Bft) N-NO 17 0 min 0,407 mm 3,8 UV-I 255 W/m 14,8 C 24,1 C 8,0 km/h (2 Bft) 97,37 %
02.09.2016 13:02 24,1 C 57 % 1019,4 hPa 0,0 l/m 3,8 km/h (1 Bft) NW 306 2 min 0,000 mm 4,1 UV-I 462 W/m 15,0 C 24,1 C 11,3 km/h (2 Bft) 97,87 %
02.09.2016 13:04 24,4 C 58 % 1019,4 hPa 0,0 l/m 1,2 km/h (1 Bft) N-NW 338 2 min 0,000 mm 4,4 UV-I 688 W/m 15,6 C 24,4 C 3,2 km/h (1 Bft) 95,74 %
02.09.2016 13:06 24,8 C 52 % 1019,4 hPa 0,0 l/m 2,8 km/h (1 Bft) NW 306 2 min 0,000 mm 4,2 UV-I 629 W/m 14,3 C 24,8 C 4,8 km/h (1 Bft) 98,11 %
02.09.2016 13:08 24,8 C 53 % 1019,4 hPa 0,0 l/m 3,1 km/h (1 Bft) W 267 2 min 0,000 mm 4,4 UV-I 690 W/m 14,6 C 24,8 C 11,3 km/h (2 Bft) 100,00 %
02.09.2016 13:10 24,8 C 51 % 1019,3 hPa 0,0 l/m 7,5 km/h (2 Bft) W-NW 300 2 min 0,000 mm 4,4 UV-I 678 W/m 14,0 C 24,5 C 11,3 km/h (2 Bft) 100,00 %
02.09.2016 13:12 24,7 C 52 % 1019,4 hPa 0,0 l/m 4,8 km/h (1 Bft) N-NW 332 2 min 0,000 mm 4,4 UV-I 653 W/m 14,2 C 24,7 C 8,0 km/h (2 Bft) 100,00 %
02.09.2016 13:14 24,6 C 52 % 1019,3 hPa 0,0 l/m 3,6 km/h (1 Bft) W 281 2 min 0,000 mm 4,4 UV-I 680 W/m 14,1 C 24,6 C 4,8 km/h (1 Bft) 98,00 %
02.09.2016 13:16 24,5 C 52 % 1019,3 hPa 0,0 l/m 2,7 km/h (1 Bft) W-SW 252 2 min 0,000 mm 4,2 UV-I 641 W/m 14,0 C 24,5 C 4,8 km/h (1 Bft) 100,00 %
02.09.2016 13:18 24,8 C 54 % 1019,3 hPa 0,0 l/m 5,5 km/h (1 Bft) W-NW 300 2 min 0,000 mm 4,1 UV-I 613 W/m 14,8 C 24,8 C 11,3 km/h (2 Bft) 100,00 %
02.09.2016 13:20 25,1 C 57 % 1019,3 hPa 0,0 l/m 2,1 km/h (1 Bft) W-SW 252 2 min 0,000 mm 4,1 UV-I 607 W/m 16,0 C 25,1 C 4,8 km/h (1 Bft) 95,74 %
02.09.2016 13:22 25,1 C 53 % 1019,2 hPa 0,0 l/m 5,6 km/h (1 Bft) W-SW 245 2 min 0,000 mm 4,4 UV-I 653 W/m 14,8 C 25,1 C 11,3 km/h (2 Bft) 100,00 %
02.09.2016 13:24 24,9 C 51 % 1019,2 hPa 0,0 l/m 5,8 km/h (2 Bft) W-SW 257 2 min 0,000 mm 4,4 UV-I 659 W/m 14,1 C 24,9 C 11,3 km/h (2 Bft) 100,00 %
02.09.2016 13:26 25,1 C 50 % 1019,1 hPa 0,0 l/m 3,4 km/h (1 Bft) W-NW 284 2 min 0,000 mm 4,5 UV-I 689 W/m 13,9 C 25,1 C 4,8 km/h (1 Bft) 97,44 %
02.09.2016 13:28 25,2 C 50 % 1019,1 hPa 0,0 l/m 6,1 km/h (2 Bft) W 272 2 min 0,000 mm 4,6 UV-I 726 W/m 14,0 C 25,2 C 12,9 km/h (3 Bft) 96,23 %
02.09.2016 13:30 25,2 C 52 % 1019,1 hPa 0,0 l/m 9,4 km/h (2 Bft) SW 236 2 min 0,000 mm 4,3 UV-I 663 W/m 14,6 C 24,5 C 16,1 km/h (3 Bft) 100,00 %
02.09.2016 13:32 25,4 C 51 % 1019,2 hPa 0,0 l/m 6,0 km/h (2 Bft) W-SW 242 2 min 0,000 mm 4,3 UV-I 647 W/m 14,5 C 25,4 C 12,9 km/h (3 Bft) 100,00 %
02.09.2016 13:34 25,6 C 47 % 1019,2 hPa 0,0 l/m 4,7 km/h (1 Bft) W-NW 295 2 min 0,000 mm 4,3 UV-I 669 W/m 13,4 C 25,6 C 9,7 km/h (2 Bft) 100,00 %
02.09.2016 13:36 25,4 C 48 % 1019,1 hPa 0,0 l/m 4,9 km/h (1 Bft) W-SW 244 2 min 0,000 mm 4,1 UV-I 621 W/m 13,6 C 25,4 C 9,7 km/h (2 Bft) 98,00 %
02.09.2016 13:38 25,3 C 47 % 1019,1 hPa 0,0 l/m 6,0 km/h (2 Bft) W 269 2 min 0,000 mm 3,9 UV-I 563 W/m 13,2 C 25,3 C 9,7 km/h (2 Bft) 100,00 %
02.09.2016 13:40 25,2 C 48 % 1019,0 hPa 0,0 l/m 3,4 km/h (1 Bft) W 279 2 min 0,000 mm 3,8 UV-I 537 W/m 13,4 C 25,2 C 9,7 km/h (2 Bft) 100,00 %
02.09.2016 13:42 25,2 C 49 % 1019,1 hPa 0,0 l/m 5,5 km/h (1 Bft) W 260 2 min 0,000 mm 3,6 UV-I 483 W/m 13,7 C 25,2 C 12,9 km/h (3 Bft) 100,00 %
02.09.2016 13:44 25,1 C 48 % 1019,1 hPa 0,0 l/m 6,9 km/h (2 Bft) W-SW 240 2 min 0,000 mm 3,7 UV-I 510 W/m 13,3 C 25,0 C 11,3 km/h (2 Bft) 100,00 %
02.09.2016 13:46 25,0 C 47 % 1019,1 hPa 0,0 l/m 6,6 km/h (2 Bft) W-NW 292 2 min 0,000 mm 4,0 UV-I 587 W/m 12,9 C 25,0 C 12,9 km/h (3 Bft) 100,00 %
02.09.2016 13:48 25,1 C 49 % 1019,1 hPa 0,0 l/m 8,4 km/h (2 Bft) W-SW 239 2 min 0,000 mm 4,3 UV-I 666 W/m 13,6 C 24,6 C 14,5 km/h (3 Bft) 100,00 %
02.09.2016 13:50 25,3 C 48 % 1019,1 hPa 0,0 l/m 8,2 km/h (2 Bft) W 265 2 min 0,000 mm 4,6 UV-I 746 W/m 13,5 C 24,9 C 16,1 km/h (3 Bft) 97,14 %
02.09.2016 13:52 25,3 C 50 % 1019,0 hPa 0,0 l/m 5,8 km/h (2 Bft) W-SW 244 2 min 0,000 mm 4,5 UV-I 700 W/m 14,1 C 25,3 C 11,3 km/h (2 Bft) 100,00 %
02.09.2016 13:54 25,6 C 50 % 1019,0 hPa 0,0 l/m 7,6 km/h (2 Bft) S-SW 198 2 min 0,000 mm 4,3 UV-I 662 W/m 14,4 C 25,3 C 12,9 km/h (3 Bft) 100,00 %
02.09.2016 13:56 25,7 C 49 % 1019,0 hPa 0,0 l/m 11,2 km/h (2 Bft) SW 222 2 min 0,000 mm 4,5 UV-I 709 W/m 14,2 C 24,7 C 16,1 km/h (3 Bft) 98,44 %
02.09.2016 13:58 25,8 C 47 % 1019,0 hPa 0,0 l/m 7,0 km/h (2 Bft) W-SW 246 2 min 0,000 mm 4,5 UV-I 722 W/m 13,6 C 25,7 C 14,5 km/h (3 Bft) 100,00 %
02.09.2016 14:00 25,8 C 48 % 1018,9 hPa 0,0 l/m 11,4 km/h (2 Bft) W-SW 251 2 min 0,457 mm 4,6 UV-I 738 W/m 13,9 C 24,8 C 22,5 km/h (4 Bft) 100,00 %
02.09.2016 14:02 25,8 C 49 % 1019,0 hPa 0,0 l/m 12,2 km/h (2 Bft) SW 234 2 min 0,000 mm 4,6 UV-I 730 W/m 14,3 C 24,7 C 19,3 km/h (3 Bft) 98,00 %
02.09.2016 14:04 25,9 C 51 % 1019,0 hPa 0,0 l/m 10,2 km/h (2 Bft) SW 221 2 min 0,000 mm 4,6 UV-I 740 W/m 15,0 C 25,1 C 14,5 km/h (3 Bft) 95,74 %
02.09.2016 14:06 26,1 C 50 % 1018,9 hPa 0,0 l/m 8,9 km/h (2 Bft) W-SW 250 2 min 0,000 mm 4,6 UV-I 734 W/m 14,8 C 25,6 C 14,5 km/h (3 Bft) 100,00 %
02.09.2016 14:08 26,0 C 48 % 1018,9 hPa 0,0 l/m 8,9 km/h (2 Bft) W 260 2 min 0,000 mm 4,6 UV-I 739 W/m 14,1 C 25,5 C 16,1 km/h (3 Bft) 100,00 %
02.09.2016 14:10 25,9 C 49 % 1018,9 hPa 0,0 l/m 12,0 km/h (2 Bft) SW 214 2 min 0,000 mm 4,5 UV-I 740 W/m 14,4 C 24,8 C 17,7 km/h (3 Bft) 97,87 %
02.09.2016 14:12 25,9 C 48 % 1018,9 hPa 0,0 l/m 7,8 km/h (2 Bft) SW 227 2 min 0,000 mm 4,5 UV-I 736 W/m 14,0 C 25,6 C 11,3 km/h (2 Bft) 100,00 %
02.09.2016 14:14 25,9 C 51 % 1018,8 hPa 0,0 l/m 7,5 km/h (2 Bft) S-SW 200 2 min 0,000 mm 4,4 UV-I 718 W/m 15,0 C 25,7 C 14,5 km/h (3 Bft) 100,00 %
02.09.2016 14:16 25,8 C 48 % 1018,8 hPa 0,0 l/m 9,9 km/h (2 Bft) W 273 2 min 0,000 mm 4,2 UV-I 690 W/m 13,9 C 25,1 C 14,5 km/h (3 Bft) 97,37 %
02.09.2016 14:18 25,8 C 49 % 1018,8 hPa 0,0 l/m 8,0 km/h (2 Bft) W-SW 248 2 min 0,000 mm 4,2 UV-I 688 W/m 14,3 C 25,4 C 14,5 km/h (3 Bft) 97,87 %
02.09.2016 14:20 25,7 C 48 % 1018,8 hPa 0,0 l/m 8,7 km/h (2 Bft) W-SW 250 2 min 0,000 mm 4,3 UV-I 710 W/m 13,9 C 25,2 C 16,1 km/h (3 Bft) 98,00 %
02.09.2016 14:22 25,5 C 48 % 1018,8 hPa 0,0 l/m 5,5 km/h (1 Bft) W-SW 238 2 min 0,000 mm 4,3 UV-I 699 W/m 13,7 C 25,5 C 9,7 km/h (2 Bft) 100,00 %
02.09.2016 14:24 25,4 C 49 % 1018,8 hPa 0,0 l/m 12,4 km/h (3 Bft) W-SW 242 2 min 0,000 mm 4,2 UV-I 698 W/m 13,9 C 24,2 C 19,3 km/h (3 Bft) 100,00 %
02.09.2016 14:26 25,4 C 48 % 1018,8 hPa 0,0 l/m 9,0 km/h (2 Bft) SW 215 2 min 0,000 mm 4,2 UV-I 700 W/m 13,6 C 24,8 C 20,9 km/h (4 Bft) 100,00 %
02.09.2016 14:28 25,4 C 49 % 1018,8 hPa 0,0 l/m 6,0 km/h (2 Bft) W-NW 299 2 min 0,000 mm 4,3 UV-I 706 W/m 13,9 C 25,4 C 14,5 km/h (3 Bft) 100,00 %
02.09.2016 14:30 25,3 C 48 % 1018,7 hPa 0,0 l/m 4,1 km/h (1 Bft) W 263 2 min 0,000 mm 4,1 UV-I 680 W/m 13,5 C 25,3 C 9,7 km/h (2 Bft) 100,00 %
02.09.2016 14:32 25,3 C 51 % 1018,7 hPa 0,0 l/m 12,0 km/h (2 Bft) W-SW 245 2 min 0,000 mm 4,1 UV-I 667 W/m 14,4 C 24,1 C 19,3 km/h (3 Bft) 96,88 %
02.09.2016 14:34 25,4 C 49 % 1018,7 hPa 0,0 l/m 11,0 km/h (2 Bft) S-SW 193 2 min 0,000 mm 4,0 UV-I 649 W/m 13,9 C 24,4 C 14,5 km/h (3 Bft) 100,00 %
02.09.2016 14:36 25,5 C 48 % 1018,7 hPa 0,0 l/m 10,2 km/h (2 Bft) SW 232 2 min 0,000 mm 4,0 UV-I 668 W/m 13,7 C 24,7 C 20,9 km/h (4 Bft) 97,87 %
02.09.2016 14:38 25,6 C 49 % 1018,7 hPa 0,0 l/m 13,0 km/h (3 Bft) W-SW 239 2 min 0,000 mm 4,0 UV-I 667 W/m 14,1 C 24,3 C 19,3 km/h (3 Bft) 97,87 %
02.09.2016 14:40 25,6 C 49 % 1018,6 hPa 0,0 l/m 16,7 km/h (3 Bft) W-SW 249 2 min 0,000 mm 4,0 UV-I 642 W/m 14,1 C 23,8 C 24,1 km/h (4 Bft) 97,87 %
02.09.2016 14:42 25,7 C 50 % 1018,6 hPa 0,0 l/m 12,6 km/h (3 Bft) SW 220 2 min 0,000 mm 3,9 UV-I 657 W/m 14,5 C 24,5 C 17,7 km/h (3 Bft) 97,96 %
02.09.2016 14:44 25,7 C 48 % 1018,6 hPa 0,0 l/m 6,6 km/h (2 Bft) W-NW 294 2 min 0,000 mm 3,6 UV-I 584 W/m 13,9 C 25,7 C 12,9 km/h (3 Bft) 97,92 %
02.09.2016 14:46 25,7 C 48 % 1018,5 hPa 0,0 l/m 8,9 km/h (2 Bft) SW 217 2 min 0,000 mm 3,7 UV-I 632 W/m 13,9 C 25,1 C 14,5 km/h (3 Bft) 96,00 %
02.09.2016 14:48 25,7 C 49 % 1018,5 hPa 0,0 l/m 9,8 km/h (2 Bft) W 261 2 min 0,000 mm 3,7 UV-I 602 W/m 14,2 C 25,0 C 16,1 km/h (3 Bft) 95,74 %
02.09.2016 14:50 25,5 C 49 % 1018,5 hPa 0,0 l/m 8,5 km/h (2 Bft) W 269 2 min 0,000 mm 3,7 UV-I 590 W/m 14,0 C 25,0 C 14,5 km/h (3 Bft) 97,87 %
02.09.2016 14:52 25,3 C 47 % 1018,5 hPa 0,0 l/m 5,6 km/h (1 Bft) W-NW 289 2 min 0,000 mm 3,8 UV-I 646 W/m 13,2 C 25,3 C 11,3 km/h (2 Bft) 95,74 %
02.09.2016 14:54 25,4 C 48 % 1018,5 hPa 0,0 l/m 5,5 km/h (1 Bft) W-SW 237 2 min 0,000 mm 3,8 UV-I 669 W/m 13,6 C 25,4 C 9,7 km/h (2 Bft) 97,87 %
02.09.2016 14:56 25,6 C 48 % 1018,5 hPa 0,0 l/m 14,0 km/h (3 Bft) W-SW 245 2 min 0,000 mm 3,8 UV-I 667 W/m 13,8 C 24,2 C 19,3 km/h (3 Bft) 95,74 %
02.09.2016 14:58 25,8 C 47 % 1018,5 hPa 0,0 l/m 11,8 km/h (2 Bft) SW 236 2 min 0,000 mm 3,7 UV-I 658 W/m 13,6 C 24,7 C 17,7 km/h (3 Bft) 97,87 %
02.09.2016 15:00 25,9 C 47 % 1018,6 hPa 0,0 l/m 9,3 km/h (2 Bft) W-SW 237 2 min 0,508 mm 3,7 UV-I 657 W/m 13,7 C 25,3 C 16,1 km/h (3 Bft) 97,37 %
02.09.2016 15:02 25,8 C 47 % 1018,5 hPa 0,0 l/m 12,0 km/h (2 Bft) W-SW 249 2 min 0,000 mm 3,7 UV-I 657 W/m 13,6 C 24,7 C 20,9 km/h (4 Bft) 97,87 %
02.09.2016 15:04 25,8 C 48 % 1018,5 hPa 0,0 l/m 8,5 km/h (2 Bft) W-SW 253 2 min 0,000 mm 3,6 UV-I 648 W/m 13,9 C 25,3 C 14,5 km/h (3 Bft) 97,87 %
02.09.2016 15:06 25,7 C 48 % 1018,5 hPa 0,0 l/m 6,7 km/h (2 Bft) W-NW 284 2 min 0,000 mm 3,6 UV-I 648 W/m 13,9 C 25,6 C 11,3 km/h (2 Bft) 96,00 %
02.09.2016 15:08 25,7 C 46 % 1018,5 hPa 0,0 l/m 8,0 km/h (2 Bft) W-SW 247 2 min 0,000 mm 3,5 UV-I 646 W/m 13,2 C 25,3 C 12,9 km/h (3 Bft) 97,87 %
02.09.2016 15:10 25,6 C 47 % 1018,5 hPa 0,0 l/m 6,4 km/h (2 Bft) W-NW 286 2 min 0,000 mm 3,5 UV-I 645 W/m 13,4 C 25,6 C 12,9 km/h (3 Bft) 98,00 %
02.09.2016 15:12 25,7 C 48 % 1018,4 hPa 0,0 l/m 3,9 km/h (1 Bft) SW 221 2 min 0,000 mm 3,5 UV-I 640 W/m 13,9 C 25,7 C 9,7 km/h (2 Bft) 100,00 %
02.09.2016 15:14 25,9 C 48 % 1018,5 hPa 0,0 l/m 7,1 km/h (2 Bft) S 186 2 min 0,000 mm 3,4 UV-I 633 W/m 14,0 C 25,7 C 9,7 km/h (2 Bft) 100,00 %
02.09.2016 15:16 25,9 C 47 % 1018,5 hPa 0,0 l/m 4,1 km/h (1 Bft) S 171 2 min 0,000 mm 3,3 UV-I 629 W/m 13,7 C 25,9 C 11,3 km/h (2 Bft) 100,00 %
02.09.2016 15:18 25,8 C 50 % 1018,4 hPa 0,0 l/m 4,0 km/h (1 Bft) N-NW 337 2 min 0,000 mm 3,4 UV-I 634 W/m 14,6 C 25,8 C 8,0 km/h (2 Bft) 100,00 %
02.09.2016 15:20 25,7 C 47 % 1018,4 hPa 0,0 l/m 3,7 km/h (1 Bft) W-SW 256 2 min 0,000 mm 3,3 UV-I 629 W/m 13,5 C 25,7 C 8,0 km/h (2 Bft) 97,87 %
02.09.2016 15:22 25,7 C 49 % 1018,4 hPa 0,0 l/m 5,5 km/h (1 Bft) W 270 2 min 0,000 mm 3,3 UV-I 631 W/m 14,2 C 25,7 C 9,7 km/h (2 Bft) 97,87 %
02.09.2016 15:24 25,8 C 48 % 1018,5 hPa 0,0 l/m 8,6 km/h (2 Bft) W-SW 258 2 min 0,000 mm 3,2 UV-I 626 W/m 13,9 C 25,3 C 14,5 km/h (3 Bft) 100,00 %
02.09.2016 15:26 25,8 C 47 % 1018,4 hPa 0,0 l/m 7,1 km/h (2 Bft) SW 219 2 min 0,000 mm 3,2 UV-I 623 W/m 13,6 C 25,6 C 12,9 km/h (3 Bft) 100,00 %
02.09.2016 15:28 26,0 C 47 % 1018,4 hPa 0,0 l/m 6,7 km/h (2 Bft) S-SW 202 2 min 0,000 mm 3,2 UV-I 618 W/m 13,8 C 25,9 C 12,9 km/h (3 Bft) 100,00 %
02.09.2016 15:30 26,2 C 47 % 1018,4 hPa 0,0 l/m 12,2 km/h (2 Bft) SW 229 2 min 0,000 mm 3,1 UV-I 610 W/m 14,0 C 25,1 C 19,3 km/h (3 Bft) 100,00 %
02.09.2016 15:32 26,1 C 46 % 1018,3 hPa 0,0 l/m 8,6 km/h (2 Bft) W-SW 250 2 min 0,000 mm 3,1 UV-I 608 W/m 13,6 C 25,6 C 16,1 km/h (3 Bft) 100,00 %
02.09.2016 15:34 25,9 C 48 % 1018,3 hPa 0,0 l/m 10,3 km/h (2 Bft) SO 130 2 min 0,000 mm 3,1 UV-I 607 W/m 14,0 C 25,1 C 14,5 km/h (3 Bft) 100,00 %
02.09.2016 15:36 26,1 C 45 % 1018,4 hPa 0,0 l/m 11,7 km/h (2 Bft) SW 226 2 min 0,000 mm 3,1 UV-I 614 W/m 13,2 C 25,1 C 19,3 km/h (3 Bft) 100,00 %
02.09.2016 15:38 26,1 C 44 % 1018,3 hPa 0,0 l/m 8,1 km/h (2 Bft) S-SW 195 2 min 0,000 mm 3,1 UV-I 609 W/m 12,9 C 25,7 C 12,9 km/h (3 Bft) 100,00 %
02.09.2016 15:40 26,1 C 45 % 1018,4 hPa 0,0 l/m 11,2 km/h (2 Bft) W-SW 257 2 min 0,000 mm 3,0 UV-I 603 W/m 13,2 C 25,2 C 16,1 km/h (3 Bft) 97,87 %
02.09.2016 15:42 26,1 C 45 % 1018,3 hPa 0,0 l/m 11,4 km/h (2 Bft) SW 225 2 min 0,000 mm 2,9 UV-I 599 W/m 13,2 C 25,1 C 14,5 km/h (3 Bft) 100,00 %
02.09.2016 15:44 26,2 C 44 % 1018,3 hPa 0,0 l/m 8,3 km/h (2 Bft) W 261 2 min 0,000 mm 2,9 UV-I 592 W/m 13,0 C 25,8 C 12,9 km/h (3 Bft) 97,87 %
02.09.2016 15:46 26,2 C 44 % 1018,3 hPa 0,0 l/m 12,6 km/h (3 Bft) S 191 2 min 0,000 mm 2,9 UV-I 591 W/m 13,0 C 25,1 C 19,3 km/h (3 Bft) 95,74 %
02.09.2016 15:48 26,2 C 44 % 1018,3 hPa 0,0 l/m 7,4 km/h (2 Bft) W-SW 243 2 min 0,000 mm 2,8 UV-I 588 W/m 13,0 C 26,0 C 12,9 km/h (3 Bft) 100,00 %
02.09.2016 15:50 26,3 C 43 % 1018,3 hPa 0,0 l/m 13,1 km/h (3 Bft) SW 236 2 min 0,000 mm 2,8 UV-I 582 W/m 12,7 C 25,1 C 19,3 km/h (3 Bft) 100,00 %
02.09.2016 15:52 26,3 C 45 % 1018,4 hPa 0,0 l/m 8,9 km/h (2 Bft) SW 222 2 min 0,000 mm 2,7 UV-I 574 W/m 13,4 C 25,8 C 17,7 km/h (3 Bft) 100,00 %
02.09.2016 15:54 26,1 C 42 % 1018,3 hPa 0,0 l/m 6,6 km/h (2 Bft) SW 229 2 min 0,000 mm 2,7 UV-I 572 W/m 12,2 C 26,1 C 9,7 km/h (2 Bft) 100,00 %
02.09.2016 15:56 26,1 C 44 % 1018,3 hPa 0,0 l/m 11,4 km/h (2 Bft) W-SW 254 2 min 0,000 mm 2,6 UV-I 566 W/m 12,9 C 25,1 C 17,7 km/h (3 Bft) 100,00 %
02.09.2016 15:58 26,1 C 41 % 1018,3 hPa 0,0 l/m 11,5 km/h (2 Bft) W-SW 254 2 min 0,000 mm 2,6 UV-I 561 W/m 11,8 C 25,1 C 17,7 km/h (3 Bft) 100,00 %
02.09.2016 16:00 26,1 C 41 % 1018,3 hPa 0,0 l/m 8,5 km/h (2 Bft) W-SW 239 2 min 0,000 mm 2,5 UV-I 556 W/m 11,8 C 25,7 C 17,7 km/h (3 Bft) 100,00 %
02.09.2016 16:02 26,1 C 42 % 1018,2 hPa 0,0 l/m 9,1 km/h (2 Bft) W 265 2 min 0,457 mm 2,5 UV-I 555 W/m 12,2 C 25,5 C 16,1 km/h (3 Bft) 100,00 %
02.09.2016 16:04 25,9 C 41 % 1018,2 hPa 0,0 l/m 6,8 km/h (2 Bft) W-SW 244 2 min 0,000 mm 2,5 UV-I 549 W/m 11,6 C 25,8 C 12,9 km/h (3 Bft) 100,00 %
02.09.2016 16:06 26,1 C 41 % 1018,2 hPa 0,0 l/m 9,8 km/h (2 Bft) SW 219 2 min 0,000 mm 2,4 UV-I 543 W/m 11,8 C 25,4 C 16,1 km/h (3 Bft) 100,00 %
02.09.2016 16:08 26,3 C 43 % 1018,1 hPa 0,0 l/m 9,5 km/h (2 Bft) SW 235 2 min 0,000 mm 2,3 UV-I 532 W/m 12,7 C 25,7 C 12,9 km/h (3 Bft) 100,00 %
02.09.2016 16:10 26,3 C 41 % 1018,2 hPa 0,0 l/m 11,6 km/h (2 Bft) SW 217 2 min 0,000 mm 2,3 UV-I 523 W/m 12,0 C 25,3 C 17,7 km/h (3 Bft) 97,87 %
02.09.2016 16:12 26,3 C 41 % 1018,2 hPa 0,0 l/m 9,7 km/h (2 Bft) SW 228 2 min 0,000 mm 2,2 UV-I 516 W/m 12,0 C 25,7 C 17,7 km/h (3 Bft) 100,00 %
02.09.2016 16:14 26,4 C 41 % 1018,1 hPa 0,0 l/m 10,9 km/h (2 Bft) W-SW 256 2 min 0,000 mm 2,2 UV-I 514 W/m 12,1 C 25,6 C 16,1 km/h (3 Bft) 98,00 %
02.09.2016 16:16 26,3 C 42 % 1018,1 hPa 0,0 l/m 10,2 km/h (2 Bft) W-NW 286 2 min 0,000 mm 2,2 UV-I 513 W/m 12,3 C 25,6 C 16,1 km/h (3 Bft) 95,74 %
02.09.2016 16:18 26,1 C 42 % 1018,1 hPa 0,0 l/m 8,2 km/h (2 Bft) SW 223 2 min 0,000 mm 2,1 UV-I 509 W/m 12,2 C 25,7 C 16,1 km/h (3 Bft) 100,00 %
02.09.2016 16:20 26,1 C 43 % 1018,2 hPa 0,0 l/m 8,7 km/h (2 Bft) W 266 2 min 0,000 mm 2,1 UV-I 504 W/m 12,5 C 25,6 C 14,5 km/h (3 Bft) 97,87 %
02.09.2016 16:22 26,2 C 44 % 1018,2 hPa 0,0 l/m 8,6 km/h (2 Bft) W-SW 245 2 min 0,000 mm 2,0 UV-I 497 W/m 13,0 C 25,7 C 12,9 km/h (3 Bft) 97,87 %
02.09.2016 16:24 26,3 C 42 % 1018,1 hPa 0,0 l/m 9,6 km/h (2 Bft) W-SW 245 2 min 0,000 mm 2,0 UV-I 490 W/m 12,3 C 25,7 C 17,7 km/h (3 Bft) 100,00 %
02.09.2016 16:26 26,3 C 41 % 1018,1 hPa 0,0 l/m 12,5 km/h (3 Bft) SW 231 2 min 0,000 mm 1,9 UV-I 484 W/m 12,0 C 25,2 C 16,1 km/h (3 Bft) 97,87 %
02.09.2016 16:28 26,2 C 41 % 1018,0 hPa 0,0 l/m 9,0 km/h (2 Bft) SW 229 2 min 0,000 mm 1,9 UV-I 477 W/m 11,9 C 25,7 C 12,9 km/h (3 Bft) 100,00 %
02.09.2016 16:30 26,2 C 45 % 1018,0 hPa 0,0 l/m 6,4 km/h (2 Bft) SW 223 2 min 0,000 mm 1,8 UV-I 471 W/m 13,3 C 26,2 C 9,7 km/h (2 Bft) 100,00 %
02.09.2016 16:32 26,2 C 42 % 1018,0 hPa 0,0 l/m 5,8 km/h (2 Bft) W 272 2 min 0,000 mm 1,8 UV-I 466 W/m 12,3 C 26,2 C 11,3 km/h (2 Bft) 100,00 %
02.09.2016 16:34 26,1 C 42 % 1017,9 hPa 0,0 l/m 3,9 km/h (1 Bft) S-SW 198 2 min 0,000 mm 1,8 UV-I 461 W/m 12,2 C 26,1 C 9,7 km/h (2 Bft) 100,00 %
02.09.2016 16:36 26,1 C 44 % 1017,9 hPa 0,0 l/m 4,9 km/h (1 Bft) S-SW 196 2 min 0,000 mm 1,7 UV-I 456 W/m 12,9 C 26,1 C 8,0 km/h (2 Bft) 97,87 %
02.09.2016 16:38 26,3 C 45 % 1017,9 hPa 0,0 l/m 7,3 km/h (2 Bft) S-SW 201 2 min 0,000 mm 1,7 UV-I 447 W/m 13,4 C 26,1 C 11,3 km/h (2 Bft) 97,87 %
02.09.2016 16:40 26,3 C 43 % 1017,9 hPa 0,0 l/m 7,5 km/h (2 Bft) SW 229 2 min 0,000 mm 1,6 UV-I 443 W/m 12,7 C 26,1 C 12,9 km/h (3 Bft) 95,83 %
02.09.2016 16:42 26,3 C 46 % 1017,9 hPa 0,0 l/m 6,2 km/h (2 Bft) S-SW 202 2 min 0,000 mm 1,6 UV-I 434 W/m 13,7 C 26,3 C 12,9 km/h (3 Bft) 97,87 %
02.09.2016 16:44 26,3 C 45 % 1017,9 hPa 0,0 l/m 8,4 km/h (2 Bft) S-SW 207 2 min 0,000 mm 1,6 UV-I 435 W/m 13,4 C 25,9 C 17,7 km/h (3 Bft) 98,04 %
02.09.2016 16:46 26,3 C 44 % 1017,9 hPa 0,0 l/m 10,4 km/h (2 Bft) SW 225 2 min 0,000 mm 1,5 UV-I 435 W/m 13,1 C 25,5 C 16,1 km/h (3 Bft) 95,74 %
02.09.2016 16:48 26,2 C 44 % 1017,9 hPa 0,0 l/m 7,8 km/h (2 Bft) SW 220 2 min 0,000 mm 1,5 UV-I 428 W/m 13,0 C 25,9 C 12,9 km/h (3 Bft) 97,87 %
02.09.2016 16:50 26,2 C 44 % 1017,9 hPa 0,0 l/m 7,5 km/h (2 Bft) W 274 2 min 0,000 mm 1,5 UV-I 426 W/m 13,0 C 26,0 C 11,3 km/h (2 Bft) 97,87 %
02.09.2016 16:52 26,1 C 45 % 1017,9 hPa 0,0 l/m 5,3 km/h (1 Bft) SW 219 2 min 0,000 mm 1,4 UV-I 419 W/m 13,2 C 26,1 C 9,7 km/h (2 Bft) 97,87 %
02.09.2016 16:54 26,1 C 43 % 1017,9 hPa 0,0 l/m 7,0 km/h (2 Bft) S-SW 211 2 min 0,000 mm 1,4 UV-I 411 W/m 12,5 C 26,0 C 11,3 km/h (2 Bft) 97,30 %
02.09.2016 16:56 26,1 C 42 % 1017,8 hPa 0,0 l/m 8,2 km/h (2 Bft) W-SW 257 2 min 0,000 mm 1,4 UV-I 405 W/m 12,2 C 25,7 C 12,9 km/h (3 Bft) 97,87 %
02.09.2016 16:58 26,2 C 43 % 1017,8 hPa 0,0 l/m 9,0 km/h (2 Bft) W 264 2 min 0,000 mm 1,3 UV-I 399 W/m 12,6 C 25,7 C 16,1 km/h (3 Bft) 97,87 %
02.09.2016 17:00 26,2 C 42 % 1017,7 hPa 0,0 l/m 6,9 km/h (2 Bft) SW 232 2 min 0,381 mm 1,3 UV-I 393 W/m 12,3 C 26,1 C 11,3 km/h (2 Bft) 97,87 %
02.09.2016 17:02 26,2 C 43 % 1017,8 hPa 0,0 l/m 5,4 km/h (1 Bft) SW 229 2 min 0,000 mm 1,3 UV-I 385 W/m 12,6 C 26,2 C 11,3 km/h (2 Bft) 97,87 %
02.09.2016 17:04 26,2 C 42 % 1017,7 hPa 0,0 l/m 3,2 km/h (1 Bft) W-NW 290 2 min 0,000 mm 1,2 UV-I 380 W/m 12,3 C 26,2 C 6,4 km/h (2 Bft) 96,00 %
02.09.2016 17:06 26,1 C 42 % 1017,7 hPa 0,0 l/m 5,0 km/h (1 Bft) W 279 2 min 0,000 mm 1,2 UV-I 374 W/m 12,2 C 26,1 C 8,0 km/h (2 Bft) 95,74 %
02.09.2016 17:08 26,1 C 41 % 1017,7 hPa 0,0 l/m 6,6 km/h (2 Bft) W-SW 249 2 min 0,000 mm 1,2 UV-I 368 W/m 11,8 C 26,1 C 12,9 km/h (3 Bft) 91,49 %
02.09.2016 17:10 26,1 C 42 % 1017,7 hPa 0,0 l/m 9,0 km/h (2 Bft) W 264 2 min 0,000 mm 1,1 UV-I 359 W/m 12,2 C 25,6 C 16,1 km/h (3 Bft) 100,00 %
02.09.2016 17:12 26,1 C 40 % 1017,6 hPa 0,0 l/m 8,9 km/h (2 Bft) W-SW 240 2 min 0,000 mm 1,1 UV-I 340 W/m 11,4 C 25,6 C 16,1 km/h (3 Bft) 100,00 %
02.09.2016 17:14 26,1 C 39 % 1017,6 hPa 0,0 l/m 7,8 km/h (2 Bft) SW 225 2 min 0,000 mm 1,0 UV-I 326 W/m 11,0 C 25,8 C 16,1 km/h (3 Bft) 95,74 %
02.09.2016 17:16 26,0 C 42 % 1017,5 hPa 0,0 l/m 6,6 km/h (2 Bft) W-SW 238 2 min 0,000 mm 1,0 UV-I 325 W/m 12,1 C 26,0 C 11,3 km/h (2 Bft) 95,74 %
02.09.2016 17:18 26,0 C 40 % 1017,5 hPa 0,0 l/m 5,0 km/h (1 Bft) SW 236 2 min 0,000 mm 1,0 UV-I 330 W/m 11,3 C 26,0 C 8,0 km/h (2 Bft) 100,00 %
02.09.2016 17:20 26,0 C 43 % 1017,5 hPa 0,0 l/m 3,8 km/h (1 Bft) W-NW 290 2 min 0,000 mm 1,0 UV-I 330 W/m 12,4 C 26,0 C 8,0 km/h (2 Bft) 100,00 %
02.09.2016 17:22 25,9 C 42 % 1017,5 hPa 0,0 l/m 7,2 km/h (2 Bft) W-SW 238 2 min 0,000 mm 0,9 UV-I 322 W/m 12,0 C 25,7 C 11,3 km/h (2 Bft) 100,00 %
02.09.2016 17:24 25,8 C 43 % 1017,5 hPa 0,0 l/m 8,6 km/h (2 Bft) W-SW 254 2 min 0,000 mm 0,9 UV-I 316 W/m 12,3 C 25,3 C 16,1 km/h (3 Bft) 100,00 %
02.09.2016 17:26 25,8 C 42 % 1017,5 hPa 0,0 l/m 6,9 km/h (2 Bft) W 265 2 min 0,000 mm 0,9 UV-I 312 W/m 11,9 C 25,7 C 12,9 km/h (3 Bft) 100,00 %
02.09.2016 17:28 25,7 C 41 % 1017,5 hPa 0,0 l/m 3,1 km/h (1 Bft) W-NW 285 2 min 0,000 mm 0,8 UV-I 311 W/m 11,4 C 25,7 C 4,8 km/h (1 Bft) 100,00 %
02.09.2016 17:30 25,6 C 42 % 1017,5 hPa 0,0 l/m 2,0 km/h (1 Bft) W-NW 285 2 min 0,000 mm 0,8 UV-I 308 W/m 11,7 C 25,6 C 4,8 km/h (1 Bft) 100,00 %
02.09.2016 17:32 25,7 C 43 % 1017,6 hPa 0,0 l/m 2,8 km/h (1 Bft) W 269 2 min 0,000 mm 0,8 UV-I 303 W/m 12,2 C 25,7 C 4,8 km/h (1 Bft) 100,00 %
02.09.2016 17:34 25,7 C 44 % 1017,5 hPa 0,0 l/m 7,1 km/h (2 Bft) W-SW 239 2 min 0,000 mm 0,8 UV-I 302 W/m 12,5 C 25,5 C 9,7 km/h (2 Bft) 100,00 %
02.09.2016 17:36 25,7 C 43 % 1017,5 hPa 0,0 l/m 6,0 km/h (2 Bft) W-SW 247 2 min 0,000 mm 0,8 UV-I 297 W/m 12,2 C 25,7 C 9,7 km/h (2 Bft) 100,00 %
02.09.2016 17:38 25,7 C 42 % 1017,5 hPa 0,0 l/m 4,9 km/h (1 Bft) W-SW 254 2 min 0,000 mm 0,7 UV-I 290 W/m 11,8 C 25,7 C 8,0 km/h (2 Bft) 100,00 %
02.09.2016 17:40 25,6 C 43 % 1017,5 hPa 0,0 l/m 3,3 km/h (1 Bft) W 275 2 min 0,000 mm 0,7 UV-I 283 W/m 12,1 C 25,6 C 9,7 km/h (2 Bft) 100,00 %
02.09.2016 17:42 25,6 C 43 % 1017,5 hPa 0,0 l/m 6,2 km/h (2 Bft) S-SW 203 2 min 0,000 mm 0,7 UV-I 276 W/m 12,1 C 25,6 C 12,9 km/h (3 Bft) 100,00 %
02.09.2016 17:44 25,6 C 41 % 1017,5 hPa 0,0 l/m 4,2 km/h (1 Bft) SW 232 2 min 0,000 mm 0,6 UV-I 266 W/m 11,4 C 25,6 C 12,9 km/h (3 Bft) 100,00 %
02.09.2016 17:46 25,6 C 42 % 1017,6 hPa 0,0 l/m 3,5 km/h (1 Bft) NW 307 2 min 0,000 mm 0,6 UV-I 261 W/m 11,7 C 25,6 C 6,4 km/h (2 Bft) 97,87 %
02.09.2016 17:48 25,6 C 42 % 1017,6 hPa 0,0 l/m 3,7 km/h (1 Bft) W 269 2 min 0,000 mm 0,6 UV-I 250 W/m 11,7 C 25,6 C 11,3 km/h (2 Bft) 100,00 %
02.09.2016 17:50 25,6 C 43 % 1017,6 hPa 0,0 l/m 3,4 km/h (1 Bft) W-SW 243 2 min 0,000 mm 0,6 UV-I 228 W/m 12,1 C 25,6 C 6,4 km/h (2 Bft) 100,00 %
02.09.2016 17:52 25,6 C 42 % 1017,5 hPa 0,0 l/m 3,0 km/h (1 Bft) W-NW 297 2 min 0,000 mm 0,5 UV-I 233 W/m 11,7 C 25,6 C 4,8 km/h (1 Bft) 97,87 %
02.09.2016 17:54 25,5 C 43 % 1017,6 hPa 0,0 l/m 4,6 km/h (1 Bft) W-NW 283 2 min 0,000 mm 0,5 UV-I 236 W/m 12,0 C 25,5 C 8,0 km/h (2 Bft) 97,92 %
02.09.2016 17:56 25,5 C 43 % 1017,5 hPa 0,0 l/m 5,0 km/h (1 Bft) W 269 2 min 0,000 mm 0,5 UV-I 237 W/m 12,0 C 25,5 C 9,7 km/h (2 Bft) 97,87 %
02.09.2016 17:58 25,5 C 43 % 1017,5 hPa 0,0 l/m 3,1 km/h (1 Bft) W 277 2 min 0,000 mm 0,5 UV-I 226 W/m 12,0 C 25,5 C 6,4 km/h (2 Bft) 98,00 %
02.09.2016 18:00 25,4 C 43 % 1017,5 hPa 0,0 l/m 2,5 km/h (1 Bft) W 281 2 min 0,254 mm 0,5 UV-I 230 W/m 11,9 C 25,4 C 6,4 km/h (2 Bft) 100,00 %
02.09.2016 18:02 25,4 C 44 % 1017,5 hPa 0,0 l/m 2,4 km/h (1 Bft) N-NO 22 2 min 0,000 mm 0,3 UV-I 220 W/m 12,2 C 25,4 C 6,4 km/h (2 Bft) 97,87 %
02.09.2016 18:04 25,3 C 44 % 1017,5 hPa 0,0 l/m 1,7 km/h (1 Bft) W-SW 257 2 min 0,000 mm 0,0 UV-I 207 W/m 12,2 C 25,3 C 3,2 km/h (1 Bft) 97,87 %
02.09.2016 18:06 25,3 C 43 % 1017,5 hPa 0,0 l/m 1,5 km/h (1 Bft) W 273 2 min 0,000 mm 0,0 UV-I 193 W/m 11,8 C 25,3 C 3,2 km/h (1 Bft) 97,87 %
02.09.2016 18:08 25,3 C 46 % 1017,5 hPa 0,0 l/m 2,6 km/h (1 Bft) N-NW 341 2 min 0,000 mm 0,0 UV-I 175 W/m 12,8 C 25,3 C 4,8 km/h (1 Bft) 97,87 %
02.09.2016 18:10 25,3 C 45 % 1017,5 hPa 0,0 l/m 2,6 km/h (1 Bft) SW 219 2 min 0,000 mm 0,0 UV-I 160 W/m 12,5 C 25,3 C 6,4 km/h (2 Bft) 100,00 %
02.09.2016 18:12 25,3 C 45 % 1017,5 hPa 0,0 l/m 3,0 km/h (1 Bft) W 281 2 min 0,000 mm 0,0 UV-I 158 W/m 12,5 C 25,3 C 9,7 km/h (2 Bft) 98,00 %
02.09.2016 18:14 25,2 C 45 % 1017,4 hPa 0,0 l/m 3,1 km/h (1 Bft) W-SW 244 2 min 0,000 mm 0,0 UV-I 134 W/m 12,4 C 25,2 C 6,4 km/h (2 Bft) 100,00 %
02.09.2016 18:16 25,1 C 46 % 1017,4 hPa 0,0 l/m 3,0 km/h (1 Bft) W 263 2 min 0,000 mm 0,0 UV-I 130 W/m 12,7 C 25,1 C 4,8 km/h (1 Bft) 100,00 %
02.09.2016 18:18 25,0 C 45 % 1017,4 hPa 0,0 l/m 3,4 km/h (1 Bft) W 265 2 min 0,000 mm 0,0 UV-I 128 W/m 12,2 C 25,0 C 6,4 km/h (2 Bft) 100,00 %
02.09.2016 18:20 24,9 C 46 % 1017,4 hPa 0,0 l/m 2,5 km/h (1 Bft) W 265 2 min 0,000 mm 0,0 UV-I 126 W/m 12,5 C 24,9 C 4,8 km/h (1 Bft) 97,87 %
02.09.2016 18:22 24,9 C 46 % 1017,4 hPa 0,0 l/m 2,8 km/h (1 Bft) W-SW 254 0 min 0,000 mm 0,0 UV-I 113 W/m 12,5 C 24,9 C 4,8 km/h (1 Bft) 93,62 %
02.09.2016 18:24 24,9 C 46 % 1017,4 hPa 0,0 l/m 1,5 km/h (1 Bft) W 262 0 min 0,000 mm 0,0 UV-I 102 W/m 12,5 C 24,9 C 4,8 km/h (1 Bft) 97,87 %
02.09.2016 18:26 24,8 C 46 % 1017,4 hPa 0,0 l/m 0,7 km/h (0 Bft) W 262 0 min 0,000 mm 0,0 UV-I 97 W/m 12,4 C 24,8 C 3,2 km/h (1 Bft) 100,00 %
02.09.2016 18:28 24,7 C 47 % 1017,4 hPa 0,0 l/m 0,2 km/h (0 Bft) W 262 0 min 0,000 mm 0,0 UV-I 104 W/m 12,6 C 24,7 C 1,6 km/h (1 Bft) 100,00 %
02.09.2016 18:30 24,7 C 46 % 1017,4 hPa 0,0 l/m 1,7 km/h (1 Bft) NW 326 2 min 0,000 mm 0,0 UV-I 110 W/m 12,3 C 24,7 C 6,4 km/h (2 Bft) 100,00 %
02.09.2016 18:32 24,6 C 47 % 1017,4 hPa 0,0 l/m 1,7 km/h (1 Bft) NW 326 2 min 0,000 mm 0,0 UV-I 108 W/m 12,5 C 24,6 C 3,2 km/h (1 Bft) 97,87 %
02.09.2016 18:34 24,7 C 47 % 1017,4 hPa 0,0 l/m 1,6 km/h (1 Bft) W-NW 302 2 min 0,000 mm 0,0 UV-I 112 W/m 12,6 C 24,7 C 4,8 km/h (1 Bft) 95,74 %
02.09.2016 18:36 24,6 C 47 % 1017,4 hPa 0,0 l/m 0,3 km/h (0 Bft) W-NW 302 2 min 0,000 mm 0,0 UV-I 113 W/m 12,5 C 24,6 C 3,2 km/h (1 Bft) 93,88 %
02.09.2016 18:38 24,6 C 49 % 1017,4 hPa 0,0 l/m 1,2 km/h (1 Bft) W-NW 302 2 min 0,000 mm 0,0 UV-I 111 W/m 13,2 C 24,6 C 3,2 km/h (1 Bft) 97,92 %
02.09.2016 18:40 24,5 C 49 % 1017,4 hPa 0,0 l/m 0,1 km/h (0 Bft) W-NW 302 2 min 0,000 mm 0,0 UV-I 107 W/m 13,1 C 24,5 C 1,6 km/h (1 Bft) 98,00 %
02.09.2016 18:42 24,5 C 50 % 1017,4 hPa 0,0 l/m 0,2 km/h (0 Bft) W-NW 302 2 min 0,000 mm 0,0 UV-I 96 W/m 13,4 C 24,5 C 1,6 km/h (1 Bft) 95,74 %
02.09.2016 18:44 24,4 C 50 % 1017,4 hPa 0,0 l/m 0,4 km/h (0 Bft) W-NW 302 0 min 0,000 mm 0,0 UV-I 76 W/m 13,3 C 24,4 C 3,2 km/h (1 Bft) 97,37 %
02.09.2016 18:46 24,4 C 50 % 1017,4 hPa 0,0 l/m 1,3 km/h (1 Bft) W-NW 302 0 min 0,000 mm 0,0 UV-I 73 W/m 13,3 C 24,4 C 3,2 km/h (1 Bft) 97,87 %
02.09.2016 18:48 24,3 C 51 % 1017,4 hPa 0,0 l/m 0,3 km/h (0 Bft) W-NW 302 2 min 0,000 mm 0,0 UV-I 79 W/m 13,5 C 24,3 C 1,6 km/h (1 Bft) 97,87 %
02.09.2016 18:50 24,3 C 51 % 1017,4 hPa 0,0 l/m 0,7 km/h (0 Bft) W-NW 302 2 min 0,000 mm 0,0 UV-I 76 W/m 13,5 C 24,3 C 3,2 km/h (1 Bft) 97,87 %
02.09.2016 18:52 24,3 C 52 % 1017,4 hPa 0,0 l/m 0,1 km/h (0 Bft) W-NW 302 0 min 0,000 mm 0,0 UV-I 63 W/m 13,8 C 24,3 C 1,6 km/h (1 Bft) 93,62 %
02.09.2016 18:54 24,2 C 52 % 1017,4 hPa 0,0 l/m 0,0 km/h (0 Bft) W-NW 302 0 min 0,000 mm 0,0 UV-I 53 W/m 13,7 C 24,2 C 1,6 km/h (1 Bft) 97,87 %
02.09.2016 18:56 24,2 C 52 % 1017,4 hPa 0,0 l/m 0,8 km/h (0 Bft) W-NW 302 0 min 0,000 mm 0,0 UV-I 53 W/m 13,7 C 24,2 C 1,6 km/h (1 Bft) 98,00 %
02.09.2016 18:58 23,9 C 55 % 1017,4 hPa 0,0 l/m 0,6 km/h (0 Bft) W-NW 302 0 min 0,000 mm 0,0 UV-I 53 W/m 14,3 C 23,9 C 1,6 km/h (1 Bft) 97,87 %
02.09.2016 19:00 23,8 C 55 % 1017,4 hPa 0,0 l/m 0,7 km/h (0 Bft) W-NW 302 0 min 0,102 mm 0,0 UV-I 54 W/m 14,2 C 23,8 C 3,2 km/h (1 Bft) 97,87 %
02.09.2016 19:02 23,7 C 55 % 1017,4 hPa 0,0 l/m 0,6 km/h (0 Bft) NW 316 0 min 0,000 mm 0,0 UV-I 48 W/m 14,1 C 23,7 C 1,6 km/h (1 Bft) 95,74 %
02.09.2016 19:04 23,6 C 55 % 1017,4 hPa 0,0 l/m 0,0 km/h (0 Bft) NW 316 0 min 0,000 mm 0,0 UV-I 45 W/m 14,0 C 23,6 C 1,6 km/h (1 Bft) 95,74 %
02.09.2016 19:06 23,4 C 56 % 1017,4 hPa 0,0 l/m 1,1 km/h (1 Bft) NW 316 0 min 0,000 mm 0,0 UV-I 40 W/m 14,1 C 23,4 C 3,2 km/h (1 Bft) 97,87 %
02.09.2016 19:08 23,3 C 56 % 1017,4 hPa 0,0 l/m 0,8 km/h (0 Bft) NW 316 0 min 0,000 mm 0,0 UV-I 38 W/m 14,0 C 23,3 C 3,2 km/h (1 Bft) 97,87 %
02.09.2016 19:10 23,3 C 56 % 1017,4 hPa 0,0 l/m 0,1 km/h (0 Bft) NW 316 0 min 0,000 mm 0,0 UV-I 35 W/m 14,0 C 23,3 C 1,6 km/h (1 Bft) 100,00 %
02.09.2016 19:12 23,2 C 57 % 1017,4 hPa 0,0 l/m 0,1 km/h (0 Bft) NW 316 0 min 0,000 mm 0,0 UV-I 34 W/m 14,2 C 23,2 C 1,6 km/h (1 Bft) 97,87 %
02.09.2016 19:14 23,1 C 56 % 1017,4 hPa 0,0 l/m 0,0 km/h (0 Bft) NW 316 0 min 0,000 mm 0,0 UV-I 33 W/m 13,8 C 23,1 C 1,6 km/h (1 Bft) 100,00 %
02.09.2016 19:16 23,1 C 57 % 1017,4 hPa 0,0 l/m 0,0 km/h (0 Bft) NW 316 0 min 0,000 mm 0,0 UV-I 31 W/m 14,1 C 23,1 C 0,0 km/h (0 Bft) 100,00 %
02.09.2016 19:18 23,1 C 56 % 1017,5 hPa 0,0 l/m 0,0 km/h (0 Bft) NW 316 0 min 0,000 mm 0,0 UV-I 29 W/m 13,8 C 23,1 C 0,0 km/h (0 Bft) 100,00 %
02.09.2016 19:20 23,1 C 59 % 1017,5 hPa 0,0 l/m 0,9 km/h (0 Bft) NW 316 2 min 0,000 mm 0,0 UV-I 27 W/m 14,6 C 23,1 C 3,2 km/h (1 Bft) 100,00 %
02.09.2016 19:22 22,7 C 63 % 1017,5 hPa 0,0 l/m 0,1 km/h (0 Bft) NW 316 2 min 0,000 mm 0,0 UV-I 24 W/m 15,3 C 22,7 C 1,6 km/h (1 Bft) 97,87 %
02.09.2016 19:24 22,3 C 65 % 1017,5 hPa 0,0 l/m 0,0 km/h (0 Bft) NW 316 2 min 0,000 mm 0,0 UV-I 23 W/m 15,4 C 22,3 C 0,0 km/h (0 Bft) 100,00 %
02.09.2016 19:26 21,8 C 67 % 1017,4 hPa 0,0 l/m 0,3 km/h (0 Bft) NW 316 2 min 0,000 mm 0,0 UV-I 20 W/m 15,4 C 21,8 C 1,6 km/h (1 Bft) 100,00 %
02.09.2016 19:28 21,6 C 68 % 1017,5 hPa 0,0 l/m 0,0 km/h (0 Bft) NW 316 2 min 0,000 mm 0,0 UV-I 17 W/m 15,4 C 21,6 C 1,6 km/h (1 Bft) 100,00 %
02.09.2016 19:30 21,3 C 68 % 1017,5 hPa 0,0 l/m 0,0 km/h (0 Bft) NW 316 2 min 0,000 mm 0,0 UV-I 15 W/m 15,1 C 21,3 C 1,6 km/h (1 Bft) 98,00 %
02.09.2016 19:32 21,1 C 70 % 1017,5 hPa 0,0 l/m 0,0 km/h (0 Bft) NW 316 2 min 0,000 mm 0,0 UV-I 13 W/m 15,4 C 21,1 C 1,6 km/h (1 Bft) 100,00 %
02.09.2016 19:34 20,8 C 70 % 1017,5 hPa 0,0 l/m 2,2 km/h (1 Bft) NW 316 0 min 0,000 mm 0,0 UV-I 12 W/m 15,1 C 20,8 C 3,2 km/h (1 Bft) 100,00 %
02.09.2016 19:36 20,6 C 70 % 1017,5 hPa 0,0 l/m 2,2 km/h (1 Bft) NW 316 0 min 0,000 mm 0,0 UV-I 10 W/m 14,9 C 20,6 C 3,2 km/h (1 Bft) 97,87 %
02.09.2016 19:38 20,4 C 71 % 1017,6 hPa 0,0 l/m 2,9 km/h (1 Bft) NW 316 0 min 0,000 mm 0,0 UV-I 8 W/m 15,0 C 20,4 C 4,8 km/h (1 Bft) 100,00 %
02.09.2016 19:40 20,3 C 72 % 1017,6 hPa 0,0 l/m 3,0 km/h (1 Bft) NW 316 0 min 0,000 mm 0,0 UV-I 5 W/m 15,1 C 20,3 C 3,2 km/h (1 Bft) 100,00 %
02.09.2016 19:42 20,1 C 72 % 1017,6 hPa 0,0 l/m 3,1 km/h (1 Bft) NW 316 0 min 0,000 mm 0,0 UV-I 4 W/m 14,9 C 20,1 C 4,8 km/h (1 Bft) 100,00 %
02.09.2016 19:44 19,9 C 73 % 1017,6 hPa 0,0 l/m 3,0 km/h (1 Bft) NW 316 0 min 0,000 mm 0,0 UV-I 0 W/m 14,9 C 19,9 C 4,8 km/h (1 Bft) 100,00 %
02.09.2016 19:46 19,9 C 72 % 1017,6 hPa 0,0 l/m 2,8 km/h (1 Bft) NW 316 0 min 0,000 mm 0,0 UV-I 0 W/m 14,7 C 19,9 C 4,8 km/h (1 Bft) 100,00 %
02.09.2016 19:48 19,9 C 72 % 1017,7 hPa 0,0 l/m 2,8 km/h (1 Bft) NW 316 0 min 0,000 mm 0,0 UV-I 0 W/m 14,7 C 19,9 C 4,8 km/h (1 Bft) 97,87 %
02.09.2016 19:50 19,8 C 72 % 1017,6 hPa 0,0 l/m 1,8 km/h (1 Bft) NW 316 0 min 0,000 mm 0,0 UV-I 0 W/m 14,6 C 19,8 C 4,8 km/h (1 Bft) 100,00 %
02.09.2016 19:52 19,8 C 73 % 1017,7 hPa 0,0 l/m 2,5 km/h (1 Bft) NW 316 0 min 0,000 mm 0,0 UV-I 0 W/m 14,8 C 19,8 C 4,8 km/h (1 Bft) 97,44 %
02.09.2016 19:54 19,7 C 73 % 1017,7 hPa 0,0 l/m 2,7 km/h (1 Bft) NW 316 0 min 0,000 mm 0,0 UV-I 0 W/m 14,7 C 19,7 C 3,2 km/h (1 Bft) 100,00 %
02.09.2016 19:56 19,5 C 74 % 1017,7 hPa 0,0 l/m 2,9 km/h (1 Bft) NW 316 0 min 0,000 mm 0,0 UV-I 0 W/m 14,7 C 19,5 C 4,8 km/h (1 Bft) 100,00 %
02.09.2016 19:58 19,4 C 74 % 1017,7 hPa 0,0 l/m 3,0 km/h (1 Bft) NW 316 0 min 0,000 mm 0,0 UV-I 0 W/m 14,6 C 19,4 C 4,8 km/h (1 Bft) 97,87 %
02.09.2016 20:00 19,3 C 74 % 1017,7 hPa 0,0 l/m 1,4 km/h (1 Bft) NW 316 0 min 0,025 mm 0,0 UV-I 0 W/m 14,5 C 19,3 C 3,2 km/h (1 Bft) 100,00 %
02.09.2016 20:02 19,4 C 73 % 1017,7 hPa 0,0 l/m 1,5 km/h (1 Bft) NW 316 0 min 0,000 mm 0,0 UV-I 0 W/m 14,4 C 19,4 C 3,2 km/h (1 Bft) 97,87 %
02.09.2016 20:04 19,3 C 74 % 1017,8 hPa 0,0 l/m 1,0 km/h (0 Bft) NW 316 0 min 0,000 mm 0,0 UV-I 0 W/m 14,5 C 19,3 C 3,2 km/h (1 Bft) 97,87 %
02.09.2016 20:06 19,4 C 73 % 1017,7 hPa 0,0 l/m 0,6 km/h (0 Bft) NW 316 0 min 0,000 mm 0,0 UV-I 0 W/m 14,4 C 19,4 C 3,2 km/h (1 Bft) 97,87 %
02.09.2016 20:08 19,6 C 71 % 1017,8 hPa 0,0 l/m 0,4 km/h (0 Bft) NW 316 0 min 0,000 mm 0,0 UV-I 0 W/m 14,2 C 19,6 C 1,6 km/h (1 Bft) 100,00 %
02.09.2016 20:10 19,7 C 71 % 1017,8 hPa 0,0 l/m 0,1 km/h (0 Bft) NW 316 0 min 0,000 mm 0,0 UV-I 0 W/m 14,3 C 19,7 C 1,6 km/h (1 Bft) 100,00 %
02.09.2016 20:12 19,7 C 71 % 1017,8 hPa 0,0 l/m 0,9 km/h (0 Bft) NW 316 0 min 0,000 mm 0,0 UV-I 0 W/m 14,3 C 19,7 C 3,2 km/h (1 Bft) 97,87 %
02.09.2016 20:14 19,8 C 70 % 1017,8 hPa 0,0 l/m 0,3 km/h (0 Bft) NW 316 0 min 0,000 mm 0,0 UV-I 0 W/m 14,2 C 19,8 C 1,6 km/h (1 Bft) 100,00 %
02.09.2016 20:16 19,7 C 71 % 1017,7 hPa 0,0 l/m 0,3 km/h (0 Bft) NW 316 0 min 0,000 mm 0,0 UV-I 0 W/m 14,3 C 19,7 C 1,6 km/h (1 Bft) 95,74 %
02.09.2016 20:18 19,6 C 71 % 1017,7 hPa 0,0 l/m 0,5 km/h (0 Bft) NW 316 0 min 0,000 mm 0,0 UV-I 0 W/m 14,2 C 19,6 C 1,6 km/h (1 Bft) 100,00 %
02.09.2016 20:20 19,4 C 72 % 1017,8 hPa 0,0 l/m 0,3 km/h (0 Bft) NW 316 0 min 0,000 mm 0,0 UV-I 0 W/m 14,2 C 19,4 C 1,6 km/h (1 Bft) 97,87 %
02.09.2016 20:22 19,3 C 73 % 1017,8 hPa 0,0 l/m 0,2 km/h (0 Bft) NW 316 0 min 0,000 mm 0,0 UV-I 0 W/m 14,3 C 19,3 C 1,6 km/h (1 Bft) 97,87 %
02.09.2016 20:24 19,2 C 74 % 1017,8 hPa 0,0 l/m 0,2 km/h (0 Bft) NW 316 0 min 0,000 mm 0,0 UV-I 0 W/m 14,4 C 19,2 C 1,6 km/h (1 Bft) 100,00 %
02.09.2016 20:26 19,0 C 75 % 1017,8 hPa 0,0 l/m 0,2 km/h (0 Bft) NW 316 0 min 0,000 mm 0,0 UV-I 0 W/m 14,5 C 19,0 C 1,6 km/h (1 Bft) 95,74 %
02.09.2016 20:28 18,8 C 75 % 1017,9 hPa 0,0 l/m 0,1 km/h (0 Bft) NW 316 0 min 0,000 mm 0,0 UV-I 0 W/m 14,3 C 18,8 C 1,6 km/h (1 Bft) 97,87 %
02.09.2016 20:30 18,7 C 76 % 1017,9 hPa 0,0 l/m 0,1 km/h (0 Bft) NW 316 0 min 0,000 mm 0,0 UV-I 0 W/m 14,4 C 18,7 C 1,6 km/h (1 Bft) 97,92 %
02.09.2016 20:32 18,6 C 76 % 1018,0 hPa 0,0 l/m 0,8 km/h (0 Bft) NW 316 0 min 0,000 mm 0,0 UV-I 0 W/m 14,3 C 18,6 C 1,6 km/h (1 Bft) 100,00 %
02.09.2016 20:34 18,6 C 75 % 1018,0 hPa 0,0 l/m 1,0 km/h (0 Bft) NW 316 0 min 0,000 mm 0,0 UV-I 0 W/m 14,1 C 18,6 C 1,6 km/h (1 Bft) 100,00 %
02.09.2016 20:36 18,6 C 75 % 1018,0 hPa 0,0 l/m 0,9 km/h (0 Bft) NW 316 0 min 0,000 mm 0,0 UV-I 0 W/m 14,1 C 18,6 C 3,2 km/h (1 Bft) 95,74 %
02.09.2016 20:38 18,6 C 75 % 1017,9 hPa 0,0 l/m 0,8 km/h (0 Bft) NW 316 0 min 0,000 mm 0,0 UV-I 0 W/m 14,1 C 18,6 C 1,6 km/h (1 Bft) 97,87 %
02.09.2016 20:40 18,7 C 76 % 1018,0 hPa 0,0 l/m 0,2 km/h (0 Bft) NW 316 0 min 0,000 mm 0,0 UV-I 0 W/m 14,4 C 18,7 C 1,6 km/h (1 Bft) 97,87 %
02.09.2016 20:42 18,7 C 76 % 1018,0 hPa 0,0 l/m 0,0 km/h (0 Bft) NW 316 0 min 0,000 mm 0,0 UV-I 0 W/m 14,4 C 18,7 C 0,0 km/h (0 Bft) 97,87 %
02.09.2016 20:44 18,7 C 76 % 1018,0 hPa 0,0 l/m 0,3 km/h (0 Bft) NW 316 0 min 0,000 mm 0,0 UV-I 0 W/m 14,4 C 18,7 C 1,6 km/h (1 Bft) 97,87 %
02.09.2016 20:46 18,7 C 76 % 1018,0 hPa 0,0 l/m 0,5 km/h (0 Bft) NW 316 0 min 0,000 mm 0,0 UV-I 0 W/m 14,4 C 18,7 C 1,6 km/h (1 Bft) 97,87 %
02.09.2016 20:48 18,6 C 77 % 1018,0 hPa 0,0 l/m 0,3 km/h (0 Bft) NW 316 0 min 0,000 mm 0,0 UV-I 0 W/m 14,5 C 18,6 C 1,6 km/h (1 Bft) 97,87 %
02.09.2016 20:50 18,3 C 77 % 1018,0 hPa 0,0 l/m 0,4 km/h (0 Bft) NW 316 0 min 0,000 mm 0,0 UV-I 0 W/m 14,2 C 18,3 C 1,6 km/h (1 Bft) 91,49 %
02.09.2016 20:52 18,2 C 77 % 1018,0 hPa 0,0 l/m 1,1 km/h (1 Bft) NW 316 0 min 0,000 mm 0,0 UV-I 0 W/m 14,1 C 18,2 C 1,6 km/h (1 Bft) 94,00 %
02.09.2016 20:54 18,2 C 77 % 1018,0 hPa 0,0 l/m 1,1 km/h (1 Bft) NW 316 0 min 0,000 mm 0,0 UV-I 0 W/m 14,1 C 18,2 C 3,2 km/h (1 Bft) 97,87 %
02.09.2016 20:56 18,2 C 77 % 1018,0 hPa 0,0 l/m 0,7 km/h (0 Bft) NW 316 0 min 0,000 mm 0,0 UV-I 0 W/m 14,1 C 18,2 C 1,6 km/h (1 Bft) 93,62 %
02.09.2016 20:58 18,2 C 77 % 1018,0 hPa 0,0 l/m 0,1 km/h (0 Bft) NW 316 0 min 0,000 mm 0,0 UV-I 0 W/m 14,1 C 18,2 C 1,6 km/h (1 Bft) 97,87 %
02.09.2016 21:00 18,3 C 77 % 1018,0 hPa 0,0 l/m 0,0 km/h (0 Bft) NW 315 0 min 0,000 mm 0,0 UV-I 0 W/m 14,2 C 18,3 C 1,6 km/h (1 Bft) 97,87 %
02.09.2016 21:02 18,3 C 78 % 1018,0 hPa 0,0 l/m 0,0 km/h (0 Bft) NW 316 0 min 0,000 mm 0,0 UV-I 0 W/m 14,4 C 18,3 C 0,0 km/h (0 Bft) 93,62 %
02.09.2016 21:04 18,3 C 78 % 1018,0 hPa 0,0 l/m 0,5 km/h (0 Bft) NW 316 0 min 0,000 mm 0,0 UV-I 0 W/m 14,4 C 18,3 C 1,6 km/h (1 Bft) 97,87 %
02.09.2016 21:06 18,2 C 77 % 1018,0 hPa 0,0 l/m 1,5 km/h (1 Bft) NW 316 0 min 0,000 mm 0,0 UV-I 0 W/m 14,1 C 18,2 C 3,2 km/h (1 Bft) 94,00 %
02.09.2016 21:08 18,2 C 76 % 1018,0 hPa 0,0 l/m 1,9 km/h (1 Bft) NW 316 0 min 0,000 mm 0,0 UV-I 0 W/m 13,9 C 18,2 C 3,2 km/h (1 Bft) 100,00 %
02.09.2016 21:10 18,3 C 76 % 1018,1 hPa 0,0 l/m 1,5 km/h (1 Bft) NW 316 0 min 0,000 mm 0,0 UV-I 0 W/m 14,0 C 18,3 C 3,2 km/h (1 Bft) 98,39 %
02.09.2016 21:12 18,3 C 77 % 1018,1 hPa 0,0 l/m 0,7 km/h (0 Bft) NW 316 0 min 0,000 mm 0,0 UV-I 0 W/m 14,2 C 18,3 C 1,6 km/h (1 Bft) 100,00 %
02.09.2016 21:14 18,1 C 77 % 1018,1 hPa 0,0 l/m 0,0 km/h (0 Bft) NW 316 0 min 0,000 mm 0,0 UV-I 0 W/m 14,0 C 18,1 C 0,0 km/h (0 Bft) 97,87 %
02.09.2016 21:16 17,9 C 78 % 1018,1 hPa 0,0 l/m 0,0 km/h (0 Bft) NW 316 0 min 0,000 mm 0,0 UV-I 0 W/m 14,0 C 17,9 C 1,6 km/h (1 Bft) 97,87 %
02.09.2016 21:18 17,8 C 78 % 1018,2 hPa 0,0 l/m 0,1 km/h (0 Bft) NW 316 0 min 0,000 mm 0,0 UV-I 0 W/m 13,9 C 17,8 C 1,6 km/h (1 Bft) 95,74 %
02.09.2016 21:20 17,7 C 77 % 1018,1 hPa 0,0 l/m 0,3 km/h (0 Bft) NW 316 0 min 0,000 mm 0,0 UV-I 0 W/m 13,6 C 17,7 C 1,6 km/h (1 Bft) 97,87 %
02.09.2016 21:22 17,6 C 79 % 1018,1 hPa 0,0 l/m 0,6 km/h (0 Bft) NW 316 0 min 0,000 mm 0,0 UV-I 0 W/m 13,9 C 17,6 C 1,6 km/h (1 Bft) 100,00 %
02.09.2016 21:24 17,6 C 79 % 1018,1 hPa 0,0 l/m 0,8 km/h (0 Bft) SW 236 0 min 0,000 mm 0,0 UV-I 0 W/m 13,9 C 17,6 C 1,6 km/h (1 Bft) 100,00 %
02.09.2016 21:26 17,6 C 79 % 1018,1 hPa 0,0 l/m 1,2 km/h (1 Bft) S-SW 192 0 min 0,000 mm 0,0 UV-I 0 W/m 13,9 C 17,6 C 3,2 km/h (1 Bft) 97,87 %
02.09.2016 21:28 17,8 C 78 % 1018,1 hPa 0,0 l/m 1,8 km/h (1 Bft) S-SW 192 0 min 0,000 mm 0,0 UV-I 0 W/m 13,9 C 17,8 C 4,8 km/h (1 Bft) 97,87 %
02.09.2016 21:30 18,1 C 77 % 1018,1 hPa 0,0 l/m 3,2 km/h (1 Bft) S-SW 192 0 min 0,000 mm 0,0 UV-I 0 W/m 14,0 C 18,1 C 4,8 km/h (1 Bft) 100,00 %
02.09.2016 21:32 18,1 C 77 % 1018,1 hPa 0,0 l/m 2,3 km/h (1 Bft) S-SW 192 0 min 0,000 mm 0,0 UV-I 0 W/m 14,0 C 18,1 C 3,2 km/h (1 Bft) 97,87 %
02.09.2016 21:34 18,0 C 78 % 1018,1 hPa 0,0 l/m 2,1 km/h (1 Bft) S 191 0 min 0,000 mm 0,0 UV-I 0 W/m 14,1 C 18,0 C 4,8 km/h (1 Bft) 100,00 %
02.09.2016 21:36 17,9 C 77 % 1018,1 hPa 0,0 l/m 2,7 km/h (1 Bft) S 191 0 min 0,000 mm 0,0 UV-I 0 W/m 13,8 C 17,9 C 4,8 km/h (1 Bft) 100,00 %
02.09.2016 21:38 18,0 C 77 % 1018,1 hPa 0,0 l/m 3,2 km/h (1 Bft) S 191 0 min 0,000 mm 0,0 UV-I 0 W/m 13,9 C 18,0 C 4,8 km/h (1 Bft) 100,00 %
02.09.2016 21:40 18,0 C 77 % 1018,1 hPa 0,0 l/m 3,1 km/h (1 Bft) S 191 0 min 0,000 mm 0,0 UV-I 0 W/m 13,9 C 18,0 C 4,8 km/h (1 Bft) 97,87 %
02.09.2016 21:42 18,1 C 77 % 1018,2 hPa 0,0 l/m 4,2 km/h (1 Bft) S 190 0 min 0,000 mm 0,0 UV-I 0 W/m 14,0 C 18,1 C 6,4 km/h (2 Bft) 97,87 %
02.09.2016 21:44 18,2 C 77 % 1018,2 hPa 0,0 l/m 4,3 km/h (1 Bft) S 189 0 min 0,000 mm 0,0 UV-I 0 W/m 14,1 C 18,2 C 4,8 km/h (1 Bft) 100,00 %
02.09.2016 21:46 18,2 C 77 % 1018,2 hPa 0,0 l/m 4,4 km/h (1 Bft) S 185 0 min 0,000 mm 0,0 UV-I 0 W/m 14,1 C 18,2 C 6,4 km/h (2 Bft) 100,00 %
02.09.2016 21:48 18,2 C 77 % 1018,2 hPa 0,0 l/m 5,2 km/h (1 Bft) S 175 0 min 0,000 mm 0,0 UV-I 0 W/m 14,1 C 18,2 C 6,4 km/h (2 Bft) 97,87 %
02.09.2016 21:50 18,2 C 77 % 1018,1 hPa 0,0 l/m 4,9 km/h (1 Bft) S 173 0 min 0,000 mm 0,0 UV-I 0 W/m 14,1 C 18,2 C 8,0 km/h (2 Bft) 100,00 %
02.09.2016 21:52 18,2 C 77 % 1018,1 hPa 0,0 l/m 4,7 km/h (1 Bft) S 178 0 min 0,000 mm 0,0 UV-I 0 W/m 14,1 C 18,2 C 8,0 km/h (2 Bft) 100,00 %
02.09.2016 21:54 18,2 C 78 % 1018,2 hPa 0,0 l/m 4,7 km/h (1 Bft) S 178 0 min 0,000 mm 0,0 UV-I 0 W/m 14,3 C 18,2 C 6,4 km/h (2 Bft) 100,00 %
02.09.2016 21:56 18,1 C 78 % 1018,1 hPa 0,0 l/m 4,7 km/h (1 Bft) S 175 0 min 0,000 mm 0,0 UV-I 0 W/m 14,2 C 18,1 C 6,4 km/h (2 Bft) 98,00 %
02.09.2016 21:58 18,1 C 78 % 1018,1 hPa 0,0 l/m 4,5 km/h (1 Bft) S 173 0 min 0,000 mm 0,0 UV-I 0 W/m 14,2 C 18,1 C 8,0 km/h (2 Bft) 97,87 %
02.09.2016 22:00 18,1 C 78 % 1018,2 hPa 0,0 l/m 5,5 km/h (1 Bft) S 177 0 min 0,000 mm 0,0 UV-I 0 W/m 14,2 C 18,1 C 8,0 km/h (2 Bft) 100,00 %
02.09.2016 22:02 18,2 C 78 % 1018,1 hPa 0,0 l/m 4,5 km/h (1 Bft) S 174 0 min 0,026 mm 0,0 UV-I 0 W/m 14,3 C 18,2 C 6,4 km/h (2 Bft) 98,00 %
02.09.2016 22:04 18,3 C 78 % 1018,2 hPa 0,0 l/m 5,2 km/h (1 Bft) S 180 0 min 0,000 mm 0,0 UV-I 0 W/m 14,4 C 18,3 C 8,0 km/h (2 Bft) 100,00 %
02.09.2016 22:06 18,3 C 78 % 1018,2 hPa 0,0 l/m 5,6 km/h (1 Bft) S 186 0 min 0,000 mm 0,0 UV-I 0 W/m 14,4 C 18,3 C 8,0 km/h (2 Bft) 98,00 %
02.09.2016 22:08 18,4 C 78 % 1018,2 hPa 0,0 l/m 7,0 km/h (2 Bft) S 181 0 min 0,000 mm 0,0 UV-I 0 W/m 14,5 C 18,1 C 9,7 km/h (2 Bft) 100,00 %
02.09.2016 22:10 18,5 C 77 % 1018,2 hPa 0,0 l/m 4,9 km/h (1 Bft) S 191 0 min 0,000 mm 0,0 UV-I 0 W/m 14,4 C 18,5 C 8,0 km/h (2 Bft) 100,00 %
02.09.2016 22:12 18,6 C 77 % 1018,2 hPa 0,0 l/m 5,5 km/h (1 Bft) S 182 0 min 0,000 mm 0,0 UV-I 0 W/m 14,5 C 18,6 C 8,0 km/h (2 Bft) 100,00 %
02.09.2016 22:14 18,6 C 77 % 1018,2 hPa 0,0 l/m 5,2 km/h (1 Bft) S 182 0 min 0,000 mm 0,0 UV-I 0 W/m 14,5 C 18,6 C 6,4 km/h (2 Bft) 98,00 %
02.09.2016 22:16 18,5 C 78 % 1018,2 hPa 0,0 l/m 4,4 km/h (1 Bft) S 175 0 min 0,000 mm 0,0 UV-I 0 W/m 14,6 C 18,5 C 8,0 km/h (2 Bft) 100,00 %
02.09.2016 22:18 18,3 C 79 % 1018,2 hPa 0,0 l/m 5,0 km/h (1 Bft) S 186 0 min 0,000 mm 0,0 UV-I 0 W/m 14,6 C 18,3 C 8,0 km/h (2 Bft) 98,00 %
02.09.2016 22:20 18,2 C 79 % 1018,2 hPa 0,0 l/m 4,8 km/h (1 Bft) S 178 0 min 0,000 mm 0,0 UV-I 0 W/m 14,5 C 18,2 C 6,4 km/h (2 Bft) 97,30 %
02.09.2016 22:22 18,0 C 80 % 1018,3 hPa 0,0 l/m 3,8 km/h (1 Bft) S 178 0 min 0,000 mm 0,0 UV-I 0 W/m 14,5 C 18,0 C 4,8 km/h (1 Bft) 100,00 %
02.09.2016 22:24 17,9 C 80 % 1018,2 hPa 0,0 l/m 4,1 km/h (1 Bft) S 178 0 min 0,000 mm 0,0 UV-I 0 W/m 14,4 C 17,9 C 4,8 km/h (1 Bft) 100,00 %
02.09.2016 22:26 17,8 C 81 % 1018,2 hPa 0,0 l/m 3,9 km/h (1 Bft) S 178 0 min 0,000 mm 0,0 UV-I 0 W/m 14,5 C 17,8 C 4,8 km/h (1 Bft) 100,00 %
02.09.2016 22:28 17,7 C 81 % 1018,2 hPa 0,0 l/m 4,6 km/h (1 Bft) S 186 0 min 0,000 mm 0,0 UV-I 0 W/m 14,4 C 17,7 C 6,4 km/h (2 Bft) 100,00 %
02.09.2016 22:30 17,7 C 81 % 1018,2 hPa 0,0 l/m 4,4 km/h (1 Bft) S 182 0 min 0,000 mm 0,0 UV-I 0 W/m 14,4 C 17,7 C 6,4 km/h (2 Bft) 100,00 %
02.09.2016 22:32 17,7 C 81 % 1018,2 hPa 0,0 l/m 5,2 km/h (1 Bft) S-SW 193 0 min 0,000 mm 0,0 UV-I 0 W/m 14,4 C 17,7 C 6,4 km/h (2 Bft) 97,92 %
02.09.2016 22:34 17,8 C 81 % 1018,2 hPa 0,0 l/m 3,9 km/h (1 Bft) S-SW 193 0 min 0,000 mm 0,0 UV-I 0 W/m 14,5 C 17,8 C 6,4 km/h (2 Bft) 100,00 %
02.09.2016 22:36 17,8 C 81 % 1018,3 hPa 0,0 l/m 3,7 km/h (1 Bft) S 190 0 min 0,000 mm 0,0 UV-I 0 W/m 14,5 C 17,8 C 4,8 km/h (1 Bft) 98,00 %
02.09.2016 22:38 17,8 C 81 % 1018,3 hPa 0,0 l/m 1,9 km/h (1 Bft) S 190 0 min 0,000 mm 0,0 UV-I 0 W/m 14,5 C 17,8 C 3,2 km/h (1 Bft) 97,87 %
02.09.2016 22:40 17,7 C 81 % 1018,3 hPa 0,0 l/m 2,7 km/h (1 Bft) S 190 0 min 0,000 mm 0,0 UV-I 0 W/m 14,4 C 17,7 C 4,8 km/h (1 Bft) 97,30 %
02.09.2016 22:42 17,6 C 81 % 1018,3 hPa 0,0 l/m 3,9 km/h (1 Bft) S-SW 192 0 min 0,000 mm 0,0 UV-I 0 W/m 14,3 C 17,6 C 6,4 km/h (2 Bft) 98,00 %
02.09.2016 22:44 17,4 C 82 % 1018,3 hPa 0,0 l/m 4,7 km/h (1 Bft) S-SW 202 0 min 0,000 mm 0,0 UV-I 0 W/m 14,3 C 17,4 C 8,0 km/h (2 Bft) 97,87 %
02.09.2016 22:46 17,4 C 82 % 1018,3 hPa 0,0 l/m 6,4 km/h (2 Bft) S-SW 198 0 min 0,000 mm 0,0 UV-I 0 W/m 14,3 C 17,4 C 8,0 km/h (2 Bft) 97,87 %
02.09.2016 22:48 17,4 C 82 % 1018,3 hPa 0,0 l/m 5,1 km/h (1 Bft) S-SW 194 0 min 0,000 mm 0,0 UV-I 0 W/m 14,3 C 17,4 C 8,0 km/h (2 Bft) 96,00 %
02.09.2016 22:50 17,5 C 82 % 1018,3 hPa 0,0 l/m 5,8 km/h (2 Bft) S-SW 207 0 min 0,000 mm 0,0 UV-I 0 W/m 14,4 C 17,5 C 8,0 km/h (2 Bft) 97,87 %
02.09.2016 22:52 17,6 C 82 % 1018,4 hPa 0,0 l/m 6,2 km/h (2 Bft) S-SW 194 0 min 0,000 mm 0,0 UV-I 0 W/m 14,5 C 17,6 C 9,7 km/h (2 Bft) 91,49 %
02.09.2016 22:54 17,6 C 82 % 1018,3 hPa 0,0 l/m 5,0 km/h (1 Bft) S-SW 200 0 min 0,000 mm 0,0 UV-I 0 W/m 14,5 C 17,6 C 8,0 km/h (2 Bft) 98,00 %
02.09.2016 22:56 17,6 C 82 % 1018,3 hPa 0,0 l/m 4,1 km/h (1 Bft) S 182 0 min 0,000 mm 0,0 UV-I 0 W/m 14,5 C 17,6 C 4,8 km/h (1 Bft) 97,14 %
02.09.2016 22:58 17,6 C 82 % 1018,3 hPa 0,0 l/m 4,5 km/h (1 Bft) S 187 0 min 0,000 mm 0,0 UV-I 0 W/m 14,5 C 17,6 C 6,4 km/h (2 Bft) 97,87 %
02.09.2016 23:00 17,6 C 82 % 1018,3 hPa 0,0 l/m 3,5 km/h (1 Bft) S 187 0 min 0,025 mm 0,0 UV-I 0 W/m 14,5 C 17,6 C 4,8 km/h (1 Bft) 97,87 %
02.09.2016 23:02 17,5 C 82 % 1018,4 hPa 0,0 l/m 3,5 km/h (1 Bft) S-SW 198 0 min 0,000 mm 0,0 UV-I 0 W/m 14,4 C 17,5 C 6,4 km/h (2 Bft) 97,87 %
02.09.2016 23:04 17,4 C 83 % 1018,4 hPa 0,0 l/m 3,8 km/h (1 Bft) S-SW 198 0 min 0,000 mm 0,0 UV-I 0 W/m 14,5 C 17,4 C 4,8 km/h (1 Bft) 97,87 %
02.09.2016 23:06 17,4 C 83 % 1018,4 hPa 0,0 l/m 4,0 km/h (1 Bft) S-SW 198 0 min 0,000 mm 0,0 UV-I 0 W/m 14,5 C 17,4 C 4,8 km/h (1 Bft) 95,83 %
02.09.2016 23:08 17,3 C 83 % 1018,4 hPa 0,0 l/m 3,1 km/h (1 Bft) S-SW 198 0 min 0,000 mm 0,0 UV-I 0 W/m 14,4 C 17,3 C 6,4 km/h (2 Bft) 97,87 %
02.09.2016 23:10 17,3 C 83 % 1018,3 hPa 0,0 l/m 3,1 km/h (1 Bft) S-SW 198 0 min 0,000 mm 0,0 UV-I 0 W/m 14,4 C 17,3 C 4,8 km/h (1 Bft) 95,65 %
02.09.2016 23:12 17,2 C 83 % 1018,3 hPa 0,0 l/m 2,6 km/h (1 Bft) S-SW 198 0 min 0,000 mm 0,0 UV-I 0 W/m 14,3 C 17,2 C 4,8 km/h (1 Bft) 95,74 %
02.09.2016 23:14 17,2 C 83 % 1018,4 hPa 0,0 l/m 3,9 km/h (1 Bft) S-SW 197 0 min 0,000 mm 0,0 UV-I 0 W/m 14,3 C 17,2 C 4,8 km/h (1 Bft) 97,87 %
02.09.2016 23:16 17,2 C 83 % 1018,4 hPa 0,0 l/m 3,3 km/h (1 Bft) S-SW 197 0 min 0,000 mm 0,0 UV-I 0 W/m 14,3 C 17,2 C 4,8 km/h (1 Bft) 100,00 %
02.09.2016 23:18 17,1 C 84 % 1018,4 hPa 0,0 l/m 3,6 km/h (1 Bft) S-SW 197 0 min 0,000 mm 0,0 UV-I 0 W/m 14,4 C 17,1 C 4,8 km/h (1 Bft) 98,00 %
02.09.2016 23:20 17,1 C 84 % 1018,3 hPa 0,0 l/m 4,5 km/h (1 Bft) S-SW 197 0 min 0,000 mm 0,0 UV-I 0 W/m 14,4 C 17,1 C 6,4 km/h (2 Bft) 97,87 %
02.09.2016 23:22 17,1 C 84 % 1018,4 hPa 0,0 l/m 3,6 km/h (1 Bft) S-SW 197 0 min 0,000 mm 0,0 UV-I 0 W/m 14,4 C 17,1 C 4,8 km/h (1 Bft) 97,87 %
02.09.2016 23:24 17,1 C 84 % 1018,4 hPa 0,0 l/m 2,7 km/h (1 Bft) S-SW 197 0 min 0,000 mm 0,0 UV-I 0 W/m 14,4 C 17,1 C 4,8 km/h (1 Bft) 97,87 %
02.09.2016 23:26 16,9 C 84 % 1018,3 hPa 0,0 l/m 3,1 km/h (1 Bft) S-SW 197 0 min 0,000 mm 0,0 UV-I 0 W/m 14,2 C 16,9 C 4,8 km/h (1 Bft) 97,87 %
02.09.2016 23:28 16,8 C 84 % 1018,4 hPa 0,0 l/m 2,5 km/h (1 Bft) S-SW 197 0 min 0,000 mm 0,0 UV-I 0 W/m 14,1 C 16,8 C 4,8 km/h (1 Bft) 100,00 %
02.09.2016 23:30 16,7 C 84 % 1018,4 hPa 0,0 l/m 3,8 km/h (1 Bft) S-SW 205 0 min 0,000 mm 0,0 UV-I 0 W/m 14,0 C 16,7 C 6,4 km/h (2 Bft) 97,37 %
02.09.2016 23:32 16,7 C 85 % 1018,3 hPa 0,0 l/m 4,6 km/h (1 Bft) SW 218 0 min 0,000 mm 0,0 UV-I 0 W/m 14,2 C 16,7 C 6,4 km/h (2 Bft) 97,87 %
02.09.2016 23:34 16,6 C 86 % 1018,3 hPa 0,0 l/m 4,1 km/h (1 Bft) SW 216 0 min 0,000 mm 0,0 UV-I 0 W/m 14,2 C 16,6 C 4,8 km/h (1 Bft) 100,00 %
02.09.2016 23:36 16,5 C 86 % 1018,3 hPa 0,0 l/m 5,0 km/h (1 Bft) S-SW 204 0 min 0,000 mm 0,0 UV-I 0 W/m 14,1 C 16,5 C 6,4 km/h (2 Bft) 100,00 %
02.09.2016 23:38 16,4 C 85 % 1018,4 hPa 0,0 l/m 5,4 km/h (1 Bft) S-SW 195 0 min 0,000 mm 0,0 UV-I 0 W/m 13,9 C 16,4 C 8,0 km/h (2 Bft) 100,00 %
02.09.2016 23:40 16,3 C 86 % 1018,4 hPa 0,0 l/m 4,5 km/h (1 Bft) S-SW 204 0 min 0,000 mm 0,0 UV-I 0 W/m 14,0 C 16,3 C 6,4 km/h (2 Bft) 97,87 %
02.09.2016 23:42 16,3 C 86 % 1018,3 hPa 0,0 l/m 3,8 km/h (1 Bft) S-SW 207 0 min 0,000 mm 0,0 UV-I 0 W/m 14,0 C 16,3 C 4,8 km/h (1 Bft) 100,00 %
02.09.2016 23:44 16,3 C 86 % 1018,3 hPa 0,0 l/m 2,6 km/h (1 Bft) S-SW 207 0 min 0,000 mm 0,0 UV-I 0 W/m 14,0 C 16,3 C 4,8 km/h (1 Bft) 100,00 %
02.09.2016 23:46 16,3 C 86 % 1018,3 hPa 0,0 l/m 3,9 km/h (1 Bft) S-SW 207 0 min 0,000 mm 0,0 UV-I 0 W/m 14,0 C 16,3 C 6,4 km/h (2 Bft) 97,92 %
02.09.2016 23:48 16,3 C 87 % 1018,4 hPa 0,0 l/m 4,4 km/h (1 Bft) S-SW 202 0 min 0,000 mm 0,0 UV-I 0 W/m 14,1 C 16,3 C 6,4 km/h (2 Bft) 100,00 %
02.09.2016 23:50 16,4 C 87 % 1018,4 hPa 0,0 l/m 4,9 km/h (1 Bft) SW 220 0 min 0,000 mm 0,0 UV-I 0 W/m 14,2 C 16,4 C 6,4 km/h (2 Bft) 100,00 %
02.09.2016 23:52 16,4 C 87 % 1018,4 hPa 0,0 l/m 4,7 km/h (1 Bft) S-SW 212 0 min 0,000 mm 0,0 UV-I 0 W/m 14,2 C 16,4 C 8,0 km/h (2 Bft) 97,87 %
02.09.2016 23:54 16,4 C 86 % 1018,4 hPa 0,0 l/m 5,2 km/h (1 Bft) S-SW 207 0 min 0,000 mm 0,0 UV-I 0 W/m 14,1 C 16,4 C 8,0 km/h (2 Bft) 100,00 %
02.09.2016 23:56 16,4 C 86 % 1018,4 hPa 0,0 l/m 4,9 km/h (1 Bft) S-SW 196 0 min 0,000 mm 0,0 UV-I 0 W/m 14,1 C 16,4 C 6,4 km/h (2 Bft) 100,00 %
02.09.2016 23:58 16,3 C 86 % 1018,4 hPa 0,0 l/m 4,5 km/h (1 Bft) S-SW 201 0 min 0,000 mm 0,0 UV-I 0 W/m 14,0 C 16,3 C 8,0 km/h (2 Bft) 100,00 %
_ Min-Zeit 04:14 17:14 18:14 - 00:16 - - - - - - 17:14 04:14 00:16 17:08
Minimum _ 15,2 C 39 % 1017,4 hPa - 0,0 km/h (0 Bft) - - - - - - 11,0 C 15,2 C 0,0 km/h (0 Bft) 91,49 %
_ Max-Zeit 16:10 03:54 09:46 07:14 14:40 - - 06:34 15:00 12:12 13:50 10:48 16:42 14:40 00:00
Maximum _ 26,4 C 96 % 1020,4 hPa 0,2 l/m 16,7 km/h
W-SW (3 Bft)
- - 2 min 0,508 mm 4,6 UV-I 746 W/m 17,4 C 26,3 C 24,1 km/h
W-SW (4 Bft)
100,00 %
Durchschnitt _ 20,0 C 75 % 1019,1 hPa #0,2 l/m 3,9 km/h (1 Bft) S - #10:44 h #3,810 mm 2,7 UV-I 399 W/m 14,7 C 19,9 C 6,9 km/h (2 Bft) 98,62 %